Wetterdaten: Freitag, 24.03.2023
Datum Zeit Temp. Aussen Temp. o. S. Temp +5cm Feuchte Auss Luftdruck Regen Sonnenschein Regendauer Solar Windben Empfang
24.03.2023 00:00 12,1 C 10,6 C 6,7 C 91 % 1002,1 hPa 0,0 l/m 0 min 2 min 0 W/m 19,3 km/h (3 Bft) 100,00 %
24.03.2023 00:02 12,1 C 10,6 C 6,7 C 91 % 1002,1 hPa 0,0 l/m 0 min 2 min 0 W/m 16,1 km/h (3 Bft) 97,44 %
24.03.2023 00:04 12,0 C 10,6 C 6,7 C 91 % 1002,1 hPa 0,0 l/m 0 min 2 min 0 W/m 25,7 km/h (4 Bft) 100,00 %
24.03.2023 00:08 12,0 C 10,6 C 6,7 C 91 % 1002,0 hPa 0,0 l/m 0 min 4 min 0 W/m 35,4 km/h (5 Bft) 94,85 %
24.03.2023 00:10 11,9 C 10,6 C 6,7 C 92 % 1002,0 hPa 0,2 l/m 0 min 2 min 0 W/m 16,1 km/h (3 Bft) 97,83 %
24.03.2023 00:12 11,9 C 10,6 C 6,7 C 92 % 1001,9 hPa 0,0 l/m 0 min 2 min 0 W/m 22,5 km/h (4 Bft) 97,87 %
24.03.2023 00:14 11,9 C 10,6 C 6,7 C 92 % 1001,9 hPa 0,0 l/m 0 min 2 min 0 W/m 16,1 km/h (3 Bft) 94,44 %
24.03.2023 00:16 11,9 C 10,6 C 6,7 C 92 % 1001,9 hPa 0,0 l/m 0 min 2 min 0 W/m 16,1 km/h (3 Bft) 100,00 %
24.03.2023 00:18 11,9 C 10,6 C 6,7 C 92 % 1001,9 hPa 0,0 l/m 0 min 2 min 0 W/m 29,0 km/h (5 Bft) 95,74 %
24.03.2023 00:20 11,9 C 10,6 C 6,7 C 92 % 1001,8 hPa 0,0 l/m 0 min 2 min 0 W/m 19,3 km/h (3 Bft) 96,08 %
24.03.2023 00:22 11,8 C 10,6 C 6,7 C 92 % 1001,8 hPa 0,0 l/m 0 min 2 min 0 W/m 12,9 km/h (3 Bft) 93,62 %
24.03.2023 00:24 11,8 C 10,6 C 6,7 C 92 % 1001,7 hPa 0,0 l/m 0 min 2 min 0 W/m 16,1 km/h (3 Bft) 97,83 %
24.03.2023 00:26 11,8 C 10,6 C 6,7 C 92 % 1001,8 hPa 0,2 l/m 0 min 2 min 0 W/m 19,3 km/h (3 Bft) 94,34 %
24.03.2023 00:28 11,8 C 10,6 C 6,7 C 92 % 1001,7 hPa 0,0 l/m 0 min 2 min 0 W/m 22,5 km/h (4 Bft) 95,74 %
24.03.2023 00:30 11,8 C 10,6 C 6,7 C 93 % 1001,7 hPa 0,0 l/m 0 min 0 min 0 W/m 16,1 km/h (3 Bft) 97,87 %
24.03.2023 00:32 11,8 C 10,6 C 6,7 C 93 % 1001,7 hPa 0,0 l/m 0 min 2 min 0 W/m 29,0 km/h (5 Bft) 95,74 %
24.03.2023 00:34 11,8 C 10,6 C 6,7 C 93 % 1001,6 hPa 0,0 l/m 0 min 2 min 0 W/m 29,0 km/h (5 Bft) 95,74 %
24.03.2023 00:36 11,8 C 10,6 C 6,7 C 93 % 1001,6 hPa 0,0 l/m 0 min 2 min 0 W/m 22,5 km/h (4 Bft) 95,65 %
24.03.2023 00:38 11,8 C 10,6 C 6,7 C 93 % 1001,6 hPa 0,0 l/m 0 min 2 min 0 W/m 12,9 km/h (3 Bft) 95,74 %
24.03.2023 00:40 11,8 C 10,6 C 6,7 C 93 % 1001,6 hPa 0,0 l/m 0 min 2 min 0 W/m 19,3 km/h (3 Bft) 93,62 %
24.03.2023 00:42 11,8 C 11,1 C 6,7 C 93 % 1001,5 hPa 0,0 l/m 0 min 2 min 0 W/m 29,0 km/h (5 Bft) 93,62 %
24.03.2023 00:44 11,8 C 11,1 C 6,7 C 93 % 1001,5 hPa 0,0 l/m 0 min 2 min 0 W/m 19,3 km/h (3 Bft) 95,74 %
24.03.2023 00:46 11,8 C 11,1 C 6,7 C 93 % 1001,6 hPa 0,0 l/m 0 min 2 min 0 W/m 19,3 km/h (3 Bft) 93,62 %
24.03.2023 00:48 11,8 C 11,1 C 6,7 C 93 % 1001,5 hPa 0,0 l/m 0 min 2 min 0 W/m 22,5 km/h (4 Bft) 97,37 %
24.03.2023 00:50 11,8 C 11,1 C 6,7 C 93 % 1001,6 hPa 0,0 l/m 0 min 2 min 0 W/m 19,3 km/h (3 Bft) 93,62 %
24.03.2023 00:52 11,8 C 11,1 C 6,7 C 93 % 1001,6 hPa 0,0 l/m 0 min 2 min 0 W/m 22,5 km/h (4 Bft) 93,48 %
24.03.2023 00:54 11,8 C 11,1 C 6,7 C 94 % 1001,5 hPa 0,0 l/m 0 min 2 min 0 W/m 22,5 km/h (4 Bft) 95,74 %
24.03.2023 00:56 11,8 C 11,1 C 6,7 C 94 % 1001,5 hPa 0,0 l/m 0 min 2 min 0 W/m 19,3 km/h (3 Bft) 95,74 %
24.03.2023 00:58 11,8 C 11,1 C 6,7 C 94 % 1001,5 hPa 0,2 l/m 0 min 2 min 0 W/m 19,3 km/h (3 Bft) 95,74 %
24.03.2023 01:00 11,8 C 11,1 C 6,7 C 94 % 1001,4 hPa 0,0 l/m 0 min 2 min 0 W/m 19,3 km/h (3 Bft) 95,74 %
24.03.2023 01:02 11,8 C 11,1 C 6,7 C 94 % 1001,4 hPa 0,0 l/m 0 min 0 min 0 W/m 22,5 km/h (4 Bft) 95,74 %
24.03.2023 01:04 11,8 C 11,1 C 6,7 C 94 % 1001,4 hPa 0,0 l/m 0 min 0 min 0 W/m 19,3 km/h (3 Bft) 97,62 %
24.03.2023 01:06 11,9 C 11,1 C 6,7 C 94 % 1001,4 hPa 0,0 l/m 0 min 0 min 0 W/m 22,5 km/h (4 Bft) 98,28 %
24.03.2023 01:08 11,9 C 11,1 C 6,7 C 94 % 1001,3 hPa 0,0 l/m 0 min 2 min 0 W/m 16,1 km/h (3 Bft) 97,14 %
24.03.2023 01:10 11,9 C 11,1 C 7,2 C 94 % 1001,3 hPa 0,0 l/m 0 min 2 min 0 W/m 19,3 km/h (3 Bft) 97,87 %
24.03.2023 01:12 11,9 C 11,1 C 7,2 C 94 % 1001,2 hPa 0,0 l/m 0 min 2 min 0 W/m 19,3 km/h (3 Bft) 97,87 %
24.03.2023 01:14 11,9 C 11,1 C 7,2 C 94 % 1001,2 hPa 0,0 l/m 0 min 2 min 0 W/m 25,7 km/h (4 Bft) 97,87 %
24.03.2023 01:16 11,9 C 11,1 C 7,2 C 94 % 1001,2 hPa 0,0 l/m 0 min 2 min 0 W/m 16,1 km/h (3 Bft) 97,87 %
24.03.2023 01:18 11,9 C 11,1 C 7,2 C 94 % 1001,0 hPa 0,0 l/m 0 min 2 min 0 W/m 16,1 km/h (3 Bft) 97,87 %
24.03.2023 01:20 12,0 C 11,1 C 7,2 C 94 % 1001,0 hPa 0,0 l/m 0 min 0 min 0 W/m 22,5 km/h (4 Bft) 97,83 %
24.03.2023 01:22 12,0 C 11,1 C 7,2 C 94 % 1001,0 hPa 0,0 l/m 0 min 2 min 0 W/m 19,3 km/h (3 Bft) 100,00 %
24.03.2023 01:24 12,0 C 11,1 C 7,2 C 94 % 1001,0 hPa 0,0 l/m 0 min 2 min 0 W/m 22,5 km/h (4 Bft) 100,00 %
24.03.2023 01:26 12,0 C 11,1 C 7,2 C 93 % 1000,9 hPa 0,0 l/m 0 min 2 min 0 W/m 22,5 km/h (4 Bft) 100,00 %
24.03.2023 01:28 12,1 C 11,1 C 7,2 C 93 % 1000,9 hPa 0,0 l/m 0 min 2 min 0 W/m 12,9 km/h (3 Bft) 97,87 %
24.03.2023 01:30 12,1 C 11,1 C 7,2 C 93 % 1000,8 hPa 0,2 l/m 0 min 2 min 0 W/m 12,9 km/h (3 Bft) 100,00 %
24.03.2023 01:32 12,1 C 11,1 C 7,2 C 93 % 1000,8 hPa 0,0 l/m 0 min 2 min 0 W/m 19,3 km/h (3 Bft) 100,00 %
24.03.2023 01:34 12,1 C 11,1 C 7,2 C 93 % 1000,7 hPa 0,0 l/m 0 min 2 min 0 W/m 16,1 km/h (3 Bft) 97,83 %
24.03.2023 01:36 12,1 C 11,1 C 7,2 C 94 % 1000,7 hPa 0,0 l/m 0 min 0 min 0 W/m 16,1 km/h (3 Bft) 95,74 %
24.03.2023 01:38 12,1 C 11,1 C 7,2 C 94 % 1000,7 hPa 0,0 l/m 0 min 0 min 0 W/m 19,3 km/h (3 Bft) 100,00 %
24.03.2023 01:40 12,1 C 11,1 C 7,2 C 94 % 1000,7 hPa 0,0 l/m 0 min 0 min 0 W/m 16,1 km/h (3 Bft) 97,87 %
24.03.2023 01:42 12,1 C 11,1 C 7,2 C 94 % 1000,7 hPa 0,0 l/m 0 min 0 min 0 W/m 16,1 km/h (3 Bft) 100,00 %
24.03.2023 01:44 12,1 C 11,1 C 7,2 C 94 % 1000,7 hPa 0,0 l/m 0 min 2 min 0 W/m 16,1 km/h (3 Bft) 97,87 %
24.03.2023 01:46 12,1 C 11,1 C 7,2 C 94 % 1000,6 hPa 0,0 l/m 0 min 2 min 0 W/m 19,3 km/h (3 Bft) 93,62 %
24.03.2023 01:48 12,1 C 11,1 C 7,2 C 94 % 1000,6 hPa 0,0 l/m 0 min 2 min 0 W/m 16,1 km/h (3 Bft) 97,83 %
24.03.2023 01:50 12,0 C 11,1 C 7,2 C 94 % 1000,6 hPa 0,0 l/m 0 min 2 min 0 W/m 16,1 km/h (3 Bft) 97,87 %
24.03.2023 01:52 12,1 C 11,1 C 7,2 C 94 % 1000,6 hPa 0,0 l/m 0 min 2 min 0 W/m 19,3 km/h (3 Bft) 97,87 %
24.03.2023 01:54 12,1 C 11,1 C 7,2 C 94 % 1000,6 hPa 0,0 l/m 0 min 2 min 0 W/m 22,5 km/h (4 Bft) 97,87 %
24.03.2023 01:56 12,1 C 11,1 C 7,2 C 94 % 1000,5 hPa 0,0 l/m 0 min 2 min 0 W/m 16,1 km/h (3 Bft) 97,87 %
24.03.2023 01:58 12,1 C 11,1 C 7,2 C 94 % 1000,6 hPa 0,0 l/m 0 min 2 min 0 W/m 16,1 km/h (3 Bft) 98,00 %
24.03.2023 02:00 12,1 C 11,1 C 7,2 C 94 % 1000,5 hPa 0,0 l/m 0 min 2 min 0 W/m 12,9 km/h (3 Bft) 98,15 %
24.03.2023 02:02 12,1 C 11,1 C 7,2 C 94 % 1000,5 hPa 0,0 l/m 0 min 2 min 0 W/m 19,3 km/h (3 Bft) 95,74 %
24.03.2023 02:04 12,1 C 11,1 C 7,2 C 94 % 1000,5 hPa 0,2 l/m 0 min 2 min 0 W/m 19,3 km/h (3 Bft) 97,87 %
24.03.2023 02:06 12,1 C 11,1 C 7,2 C 94 % 1000,5 hPa 0,0 l/m 0 min 2 min 0 W/m 25,7 km/h (4 Bft) 97,87 %
24.03.2023 02:08 12,1 C 11,1 C 7,2 C 94 % 1000,5 hPa 0,0 l/m 0 min 0 min 0 W/m 16,1 km/h (3 Bft) 97,87 %
24.03.2023 02:10 12,1 C 11,1 C 7,2 C 94 % 1000,4 hPa 0,0 l/m 0 min 2 min 0 W/m 16,1 km/h (3 Bft) 97,87 %
24.03.2023 02:12 12,1 C 11,1 C 7,2 C 94 % 1000,5 hPa 0,0 l/m 0 min 0 min 0 W/m 41,8 km/h (6 Bft) 97,83 %
24.03.2023 02:14 12,1 C 11,1 C 7,2 C 94 % 1000,4 hPa 0,0 l/m 0 min 2 min 0 W/m 25,7 km/h (4 Bft) 97,44 %
24.03.2023 02:16 12,1 C 11,1 C 7,2 C 94 % 1000,5 hPa 0,0 l/m 0 min 0 min 0 W/m 25,7 km/h (4 Bft) 97,87 %
24.03.2023 02:18 12,2 C 11,1 C 7,2 C 94 % 1000,4 hPa 0,0 l/m 0 min 2 min 0 W/m 35,4 km/h (5 Bft) 100,00 %
24.03.2023 02:20 12,2 C 11,1 C 7,2 C 94 % 1000,3 hPa 0,0 l/m 0 min 0 min 0 W/m 16,1 km/h (3 Bft) 100,00 %
24.03.2023 02:22 12,2 C 11,1 C 7,2 C 94 % 1000,3 hPa 0,0 l/m 0 min 0 min 0 W/m 19,3 km/h (3 Bft) 100,00 %
24.03.2023 02:24 12,2 C 11,1 C 7,2 C 94 % 1000,2 hPa 0,0 l/m 0 min 0 min 0 W/m 12,9 km/h (3 Bft) 100,00 %
24.03.2023 02:26 12,2 C 11,1 C 7,2 C 94 % 1000,2 hPa 0,0 l/m 0 min 0 min 0 W/m 16,1 km/h (3 Bft) 100,00 %
24.03.2023 02:28 12,2 C 11,1 C 7,2 C 94 % 1000,2 hPa 0,0 l/m 0 min 0 min 0 W/m 12,9 km/h (3 Bft) 97,96 %
24.03.2023 02:30 12,2 C 11,1 C 7,2 C 94 % 1000,2 hPa 0,0 l/m 0 min 0 min 0 W/m 25,7 km/h (4 Bft) 97,87 %
24.03.2023 02:32 12,2 C 11,1 C 7,2 C 94 % 1000,1 hPa 0,0 l/m 0 min 0 min 0 W/m 19,3 km/h (3 Bft) 97,87 %
24.03.2023 02:34 12,2 C 11,7 C 7,2 C 94 % 1000,1 hPa 0,0 l/m 0 min 0 min 0 W/m 22,5 km/h (4 Bft) 96,30 %
24.03.2023 02:36 12,2 C 11,7 C 7,2 C 94 % 1000,0 hPa 0,0 l/m 0 min 2 min 0 W/m 16,1 km/h (3 Bft) 100,00 %
24.03.2023 02:38 12,2 C 11,7 C 7,2 C 94 % 999,9 hPa 0,0 l/m 0 min 2 min 0 W/m 12,9 km/h (3 Bft) 100,00 %
24.03.2023 02:40 12,2 C 11,7 C 7,2 C 94 % 1000,0 hPa 0,0 l/m 0 min 2 min 0 W/m 16,1 km/h (3 Bft) 100,00 %
24.03.2023 02:42 12,2 C 11,7 C 7,2 C 94 % 999,9 hPa 0,0 l/m 0 min 2 min 0 W/m 16,1 km/h (3 Bft) 97,87 %
24.03.2023 02:44 12,2 C 11,7 C 7,2 C 94 % 999,9 hPa 0,0 l/m 0 min 0 min 0 W/m 12,9 km/h (3 Bft) 100,00 %
24.03.2023 02:46 12,2 C 11,7 C 7,2 C 94 % 999,9 hPa 0,0 l/m 0 min 2 min 0 W/m 12,9 km/h (3 Bft) 100,00 %
24.03.2023 02:48 12,2 C 11,7 C 7,2 C 94 % 999,8 hPa 0,0 l/m 0 min 2 min 0 W/m 16,1 km/h (3 Bft) 97,87 %
24.03.2023 02:50 12,2 C 11,7 C 7,2 C 94 % 999,8 hPa 0,0 l/m 0 min 2 min 0 W/m 19,3 km/h (3 Bft) 97,87 %
24.03.2023 02:52 12,2 C 11,7 C 7,2 C 94 % 999,7 hPa 0,0 l/m 0 min 2 min 0 W/m 16,1 km/h (3 Bft) 97,87 %
24.03.2023 02:54 12,2 C 11,7 C 7,2 C 94 % 999,7 hPa 0,0 l/m 0 min 0 min 0 W/m 12,9 km/h (3 Bft) 97,87 %
24.03.2023 02:56 12,2 C 11,7 C 7,2 C 94 % 999,6 hPa 0,0 l/m 0 min 2 min 0 W/m 19,3 km/h (3 Bft) 97,87 %
24.03.2023 02:58 12,3 C 11,7 C 7,2 C 94 % 999,6 hPa 0,0 l/m 0 min 2 min 0 W/m 19,3 km/h (3 Bft) 97,87 %
24.03.2023 03:00 12,3 C 11,7 C 7,2 C 94 % 999,6 hPa 0,2 l/m 0 min 2 min 0 W/m 16,1 km/h (3 Bft) 97,87 %
24.03.2023 03:02 12,3 C 11,7 C 7,2 C 94 % 999,5 hPa 0,0 l/m 0 min 2 min 0 W/m 16,1 km/h (3 Bft) 97,87 %
24.03.2023 03:04 12,3 C 11,7 C 7,2 C 94 % 999,4 hPa 0,0 l/m 0 min 2 min 0 W/m 9,7 km/h (2 Bft) 97,87 %
24.03.2023 03:06 12,3 C 11,7 C 7,2 C 94 % 999,4 hPa 0,0 l/m 0 min 2 min 0 W/m 12,9 km/h (3 Bft) 94,83 %
24.03.2023 03:08 12,3 C 11,7 C 7,2 C 94 % 999,4 hPa 0,0 l/m 0 min 0 min 0 W/m 16,1 km/h (3 Bft) 97,14 %
24.03.2023 03:10 12,3 C 11,7 C 7,2 C 94 % 999,3 hPa 0,0 l/m 0 min 0 min 0 W/m 19,3 km/h (3 Bft) 97,87 %
24.03.2023 03:12 12,3 C 11,7 C 7,2 C 94 % 999,3 hPa 0,0 l/m 0 min 0 min 0 W/m 16,1 km/h (3 Bft) 97,87 %
24.03.2023 03:14 12,3 C 11,7 C 7,2 C 94 % 999,2 hPa 0,0 l/m 0 min 0 min 0 W/m 16,1 km/h (3 Bft) 98,00 %
24.03.2023 03:16 12,3 C 11,7 C 7,2 C 94 % 999,2 hPa 0,0 l/m 0 min 0 min 0 W/m 16,1 km/h (3 Bft) 97,87 %
24.03.2023 03:18 12,3 C 11,7 C 7,2 C 94 % 999,2 hPa 0,0 l/m 0 min 0 min 0 W/m 16,1 km/h (3 Bft) 97,87 %
24.03.2023 03:20 12,4 C 11,7 C 7,8 C 94 % 999,1 hPa 0,0 l/m 0 min 0 min 0 W/m 22,5 km/h (4 Bft) 97,83 %
24.03.2023 03:22 12,4 C 11,7 C 7,8 C 94 % 999,1 hPa 0,0 l/m 0 min 0 min 0 W/m 16,1 km/h (3 Bft) 97,87 %
24.03.2023 03:24 12,4 C 11,7 C 7,8 C 94 % 999,1 hPa 0,0 l/m 0 min 0 min 0 W/m 22,5 km/h (4 Bft) 97,87 %
24.03.2023 03:26 12,5 C 11,7 C 7,8 C 94 % 999,1 hPa 0,0 l/m 0 min 0 min 0 W/m 16,1 km/h (3 Bft) 93,62 %
24.03.2023 03:28 12,5 C 12,2 C 7,8 C 94 % 999,1 hPa 0,0 l/m 0 min 0 min 0 W/m 16,1 km/h (3 Bft) 95,74 %
24.03.2023 03:30 12,5 C 12,2 C 7,8 C 94 % 999,1 hPa 0,0 l/m 0 min 0 min 0 W/m 12,9 km/h (3 Bft) 95,74 %
24.03.2023 03:32 12,6 C 12,2 C 7,8 C 94 % 999,1 hPa 0,0 l/m 0 min 0 min 0 W/m 19,3 km/h (3 Bft) 97,83 %
24.03.2023 03:34 12,6 C 12,2 C 7,8 C 94 % 999,1 hPa 0,0 l/m 0 min 0 min 0 W/m 19,3 km/h (3 Bft) 97,87 %
24.03.2023 03:36 12,6 C 12,2 C 7,8 C 94 % 999,1 hPa 0,0 l/m 0 min 0 min 0 W/m 16,1 km/h (3 Bft) 93,62 %
24.03.2023 03:38 12,6 C 12,2 C 7,8 C 94 % 999,1 hPa 0,0 l/m 0 min 0 min 0 W/m 29,0 km/h (5 Bft) 95,74 %
24.03.2023 03:40 12,7 C 12,2 C 7,8 C 93 % 999,0 hPa 0,0 l/m 0 min 0 min 0 W/m 19,3 km/h (3 Bft) 95,74 %
24.03.2023 03:42 12,8 C 12,2 C 7,8 C 93 % 999,0 hPa 0,0 l/m 0 min 0 min 0 W/m 19,3 km/h (3 Bft) 95,74 %
24.03.2023 03:44 12,8 C 12,2 C 7,8 C 93 % 999,0 hPa 0,0 l/m 0 min 0 min 0 W/m 38,6 km/h (5 Bft) 95,74 %
24.03.2023 03:46 12,8 C 12,2 C 7,8 C 93 % 998,8 hPa 0,0 l/m 0 min 0 min 0 W/m 22,5 km/h (4 Bft) 95,65 %
24.03.2023 03:48 12,9 C 12,2 C 7,8 C 93 % 998,9 hPa 0,0 l/m 0 min 0 min 0 W/m 22,5 km/h (4 Bft) 91,49 %
24.03.2023 03:50 12,9 C 12,2 C 7,8 C 93 % 998,9 hPa 0,0 l/m 0 min 0 min 0 W/m 29,0 km/h (5 Bft) 95,74 %
24.03.2023 03:52 12,9 C 12,2 C 7,8 C 92 % 999,0 hPa 0,0 l/m 0 min 0 min 0 W/m 29,0 km/h (5 Bft) 93,75 %
24.03.2023 03:54 13,0 C 12,8 C 7,8 C 92 % 998,8 hPa 0,0 l/m 0 min 0 min 0 W/m 35,4 km/h (5 Bft) 91,49 %
24.03.2023 03:56 13,1 C 12,8 C 7,8 C 92 % 998,9 hPa 0,0 l/m 0 min 0 min 0 W/m 48,3 km/h (6 Bft) 91,49 %
24.03.2023 03:58 13,1 C 12,8 C 7,8 C 91 % 998,9 hPa 0,0 l/m 0 min 0 min 0 W/m 25,7 km/h (4 Bft) 95,74 %
24.03.2023 04:00 13,2 C 12,8 C 7,8 C 91 % 998,8 hPa 0,0 l/m 0 min 0 min 0 W/m 35,4 km/h (5 Bft) 95,65 %
24.03.2023 04:02 13,2 C 12,8 C 7,8 C 91 % 998,9 hPa 0,0 l/m 0 min 0 min 0 W/m 41,8 km/h (6 Bft) 100,00 %
24.03.2023 04:04 13,3 C 12,8 C 7,8 C 90 % 998,9 hPa 0,0 l/m 0 min 0 min 0 W/m 35,4 km/h (5 Bft) 93,62 %
24.03.2023 04:06 13,4 C 12,8 C 7,8 C 90 % 998,7 hPa 0,0 l/m 0 min 0 min 0 W/m 22,5 km/h (4 Bft) 100,00 %
24.03.2023 04:08 13,4 C 12,8 C 7,8 C 90 % 998,9 hPa 0,0 l/m 0 min 0 min 0 W/m 35,4 km/h (5 Bft) 97,87 %
24.03.2023 04:10 13,5 C 12,8 C 7,8 C 89 % 998,9 hPa 0,0 l/m 0 min 0 min 0 W/m 32,2 km/h (5 Bft) 93,62 %
24.03.2023 04:12 13,6 C 12,8 C 7,8 C 89 % 998,8 hPa 0,0 l/m 0 min 0 min 0 W/m 32,2 km/h (5 Bft) 97,67 %
24.03.2023 04:14 13,6 C 12,8 C 7,8 C 89 % 998,8 hPa 0,0 l/m 0 min 0 min 0 W/m 35,4 km/h (5 Bft) 97,87 %
24.03.2023 04:16 13,6 C 12,8 C 7,8 C 88 % 998,8 hPa 0,0 l/m 0 min 0 min 0 W/m 45,1 km/h (6 Bft) 97,87 %
24.03.2023 04:18 13,7 C 12,8 C 7,8 C 88 % 998,8 hPa 0,0 l/m 0 min 0 min 0 W/m 29,0 km/h (5 Bft) 97,92 %
24.03.2023 04:20 13,7 C 12,8 C 7,8 C 88 % 998,8 hPa 0,0 l/m 0 min 0 min 0 W/m 32,2 km/h (5 Bft) 100,00 %
24.03.2023 04:22 13,7 C 12,8 C 7,8 C 88 % 999,1 hPa 0,0 l/m 0 min 0 min 0 W/m 29,0 km/h (5 Bft) 100,00 %
24.03.2023 04:24 13,8 C 12,8 C 7,8 C 87 % 998,9 hPa 0,0 l/m 0 min 0 min 0 W/m 29,0 km/h (5 Bft) 100,00 %
24.03.2023 04:26 13,8 C 12,8 C 7,8 C 87 % 998,9 hPa 0,0 l/m 0 min 0 min 0 W/m 25,7 km/h (4 Bft) 100,00 %
24.03.2023 04:28 13,8 C 12,8 C 7,8 C 87 % 998,8 hPa 0,0 l/m 0 min 0 min 0 W/m 25,7 km/h (4 Bft) 97,87 %
24.03.2023 04:30 13,8 C 12,8 C 7,8 C 87 % 998,8 hPa 0,0 l/m 0 min 0 min 0 W/m 32,2 km/h (5 Bft) 97,87 %
24.03.2023 04:32 13,8 C 12,8 C 7,8 C 87 % 998,7 hPa 0,0 l/m 0 min 0 min 0 W/m 25,7 km/h (4 Bft) 97,96 %
24.03.2023 04:34 13,8 C 12,8 C 7,8 C 87 % 998,8 hPa 0,0 l/m 0 min 0 min 0 W/m 35,4 km/h (5 Bft) 97,87 %
24.03.2023 04:36 13,8 C 12,8 C 7,8 C 87 % 998,8 hPa 0,0 l/m 0 min 0 min 0 W/m 35,4 km/h (5 Bft) 97,62 %
24.03.2023 04:38 13,8 C 12,8 C 7,8 C 87 % 998,9 hPa 0,0 l/m 0 min 0 min 0 W/m 38,6 km/h (5 Bft) 97,87 %
24.03.2023 04:40 13,8 C 12,8 C 7,8 C 87 % 998,9 hPa 0,0 l/m 0 min 0 min 0 W/m 29,0 km/h (5 Bft) 100,00 %
24.03.2023 04:42 13,8 C 12,8 C 7,8 C 87 % 998,8 hPa 0,0 l/m 0 min 0 min 0 W/m 25,7 km/h (4 Bft) 100,00 %
24.03.2023 04:44 13,8 C 12,8 C 7,8 C 87 % 998,9 hPa 0,0 l/m 0 min 0 min 0 W/m 54,7 km/h (7 Bft) 100,00 %
24.03.2023 04:46 13,7 C 12,8 C 7,8 C 87 % 998,7 hPa 0,0 l/m 0 min 0 min 0 W/m 22,5 km/h (4 Bft) 100,00 %
24.03.2023 04:48 13,7 C 12,8 C 7,8 C 87 % 998,9 hPa 0,0 l/m 0 min 0 min 0 W/m 19,3 km/h (3 Bft) 97,87 %
24.03.2023 04:50 13,7 C 12,8 C 7,8 C 87 % 998,8 hPa 0,0 l/m 0 min 0 min 0 W/m 19,3 km/h (3 Bft) 100,00 %
24.03.2023 04:52 13,7 C 12,8 C 7,8 C 87 % 998,9 hPa 0,0 l/m 0 min 2 min 0 W/m 19,3 km/h (3 Bft) 97,83 %
24.03.2023 04:54 13,7 C 12,2 C 7,8 C 88 % 998,9 hPa 0,0 l/m 0 min 2 min 0 W/m 32,2 km/h (5 Bft) 100,00 %
24.03.2023 04:56 13,6 C 12,2 C 7,8 C 88 % 999,0 hPa 0,2 l/m 0 min 2 min 0 W/m 32,2 km/h (5 Bft) 97,87 %
24.03.2023 04:58 13,5 C 11,7 C 7,8 C 89 % 999,1 hPa 0,2 l/m 0 min 2 min 0 W/m 16,1 km/h (3 Bft) 100,00 %
24.03.2023 05:00 13,4 C 11,7 C 7,8 C 90 % 999,1 hPa 0,2 l/m 0 min 2 min 0 W/m 16,1 km/h (3 Bft) 97,87 %
24.03.2023 05:02 13,2 C 11,7 C 7,8 C 90 % 999,3 hPa 0,2 l/m 0 min 2 min 0 W/m 41,8 km/h (6 Bft) 97,87 %
24.03.2023 05:04 13,1 C 11,1 C 7,8 C 90 % 999,2 hPa 0,0 l/m 0 min 2 min 0 W/m 25,7 km/h (4 Bft) 100,00 %
24.03.2023 05:06 13,0 C 11,1 C 7,8 C 91 % 999,4 hPa 0,2 l/m 0 min 2 min 0 W/m 16,1 km/h (3 Bft) 98,28 %
24.03.2023 05:08 12,9 C 11,1 C 7,8 C 92 % 999,4 hPa 0,2 l/m 0 min 2 min 0 W/m 16,1 km/h (3 Bft) 100,00 %
24.03.2023 05:10 12,8 C 11,1 C 7,8 C 92 % 999,4 hPa 0,0 l/m 0 min 2 min 0 W/m 19,3 km/h (3 Bft) 97,87 %
24.03.2023 05:12 12,8 C 11,1 C 7,8 C 93 % 999,4 hPa 0,0 l/m 0 min 0 min 0 W/m 12,9 km/h (3 Bft) 100,00 %
24.03.2023 05:14 12,7 C 11,1 C 7,8 C 93 % 999,4 hPa 0,0 l/m 0 min 0 min 0 W/m 12,9 km/h (3 Bft) 100,00 %
24.03.2023 05:16 12,7 C 11,1 C 7,8 C 93 % 999,5 hPa 0,0 l/m 0 min 2 min 0 W/m 22,5 km/h (4 Bft) 100,00 %
24.03.2023 05:18 12,6 C 11,1 C 7,8 C 93 % 999,6 hPa 0,0 l/m 0 min 2 min 0 W/m 19,3 km/h (3 Bft) 100,00 %
24.03.2023 05:20 12,6 C 11,1 C 7,8 C 93 % 999,7 hPa 0,0 l/m 0 min 2 min 0 W/m 19,3 km/h (3 Bft) 95,65 %
24.03.2023 05:22 12,6 C 11,1 C 7,8 C 94 % 999,6 hPa 0,2 l/m 0 min 2 min 0 W/m 16,1 km/h (3 Bft) 97,87 %
24.03.2023 05:24 12,5 C 11,1 C 7,8 C 94 % 999,6 hPa 0,0 l/m 0 min 2 min 0 W/m 35,4 km/h (5 Bft) 95,74 %
24.03.2023 05:26 12,4 C 11,1 C 7,8 C 94 % 999,5 hPa 0,0 l/m 0 min 0 min 0 W/m 16,1 km/h (3 Bft) 97,87 %
24.03.2023 05:28 12,4 C 11,1 C 7,2 C 94 % 999,6 hPa 0,0 l/m 0 min 0 min 0 W/m 16,1 km/h (3 Bft) 95,74 %
24.03.2023 05:30 12,3 C 11,1 C 7,2 C 94 % 999,6 hPa 0,0 l/m 0 min 0 min 0 W/m 19,3 km/h (3 Bft) 95,74 %
24.03.2023 05:32 12,3 C 10,6 C 7,2 C 94 % 999,7 hPa 0,0 l/m 0 min 0 min 0 W/m 22,5 km/h (4 Bft) 95,74 %
24.03.2023 05:34 12,2 C 10,6 C 7,2 C 94 % 999,7 hPa 0,0 l/m 0 min 0 min 0 W/m 16,1 km/h (3 Bft) 95,65 %
24.03.2023 05:36 12,2 C 10,6 C 7,2 C 94 % 999,7 hPa 0,0 l/m 0 min 0 min 0 W/m 25,7 km/h (4 Bft) 95,74 %
24.03.2023 05:38 12,2 C 11,1 C 7,2 C 94 % 999,9 hPa 0,0 l/m 0 min 0 min 0 W/m 25,7 km/h (4 Bft) 93,62 %
24.03.2023 05:40 12,1 C 11,1 C 7,2 C 94 % 1000,0 hPa 0,0 l/m 0 min 0 min 0 W/m 22,5 km/h (4 Bft) 93,62 %
24.03.2023 05:42 12,1 C 11,1 C 7,2 C 94 % 999,9 hPa 0,0 l/m 0 min 0 min 0 W/m 29,0 km/h (5 Bft) 94,00 %
24.03.2023 05:44 12,1 C 11,1 C 7,2 C 94 % 1000,2 hPa 0,0 l/m 0 min 0 min 0 W/m 25,7 km/h (4 Bft) 91,49 %
24.03.2023 05:46 12,1 C 11,1 C 7,2 C 94 % 1000,0 hPa 0,0 l/m 0 min 0 min 0 W/m 22,5 km/h (4 Bft) 93,48 %
24.03.2023 05:48 12,1 C 11,1 C 7,2 C 94 % 1000,1 hPa 0,0 l/m 0 min 0 min 0 W/m 35,4 km/h (5 Bft) 91,49 %
24.03.2023 05:50 12,1 C 11,1 C 7,2 C 93 % 1000,2 hPa 0,0 l/m 0 min 0 min 0 W/m 19,3 km/h (3 Bft) 95,74 %
24.03.2023 05:52 12,1 C 11,1 C 7,2 C 94 % 1000,2 hPa 0,0 l/m 0 min 0 min 0 W/m 16,1 km/h (3 Bft) 95,74 %
24.03.2023 05:54 12,1 C 11,1 C 7,2 C 93 % 1000,2 hPa 0,0 l/m 0 min 0 min 0 W/m 19,3 km/h (3 Bft) 93,62 %
24.03.2023 05:56 12,1 C 11,1 C 7,2 C 93 % 1000,2 hPa 0,0 l/m 0 min 0 min 0 W/m 16,1 km/h (3 Bft) 93,62 %
24.03.2023 05:58 12,1 C 11,1 C 7,2 C 93 % 1000,3 hPa 0,0 l/m 0 min 0 min 0 W/m 16,1 km/h (3 Bft) 94,29 %
24.03.2023 06:00 12,0 C 11,1 C 7,2 C 93 % 1000,5 hPa 0,0 l/m 0 min 0 min 0 W/m 25,7 km/h (4 Bft) 97,87 %
24.03.2023 06:02 11,9 C 11,1 C 7,2 C 93 % 1000,5 hPa 0,0 l/m 0 min 0 min 0 W/m 22,5 km/h (4 Bft) 100,00 %
24.03.2023 06:04 11,8 C 11,1 C 6,7 C 93 % 1000,5 hPa 0,0 l/m 0 min 0 min 0 W/m 22,5 km/h (4 Bft) 100,00 %
24.03.2023 06:08 11,7 C 10,6 C 6,7 C 92 % 1000,5 hPa 0,0 l/m 0 min 0 min 0 W/m 22,5 km/h (4 Bft) 98,94 %
24.03.2023 06:10 11,6 C 10,6 C 6,7 C 91 % 1000,5 hPa 0,0 l/m 0 min 0 min 0 W/m 19,3 km/h (3 Bft) 100,00 %
24.03.2023 06:12 11,6 C 10,6 C 6,1 C 91 % 1000,7 hPa 0,0 l/m 0 min 0 min 0 W/m 32,2 km/h (5 Bft) 93,62 %
24.03.2023 06:14 11,4 C 10,6 C 6,1 C 91 % 1000,8 hPa 0,0 l/m 0 min 0 min 0 W/m 19,3 km/h (3 Bft) 98,15 %
24.03.2023 06:16 11,3 C 10,6 C 6,1 C 90 % 1000,8 hPa 0,0 l/m 0 min 0 min 0 W/m 22,5 km/h (4 Bft) 100,00 %
24.03.2023 06:18 11,3 C 10,6 C 6,1 C 90 % 1000,8 hPa 0,0 l/m 0 min 0 min 0 W/m 25,7 km/h (4 Bft) 95,74 %
24.03.2023 06:20 11,3 C 10,6 C 6,1 C 90 % 1001,0 hPa 0,0 l/m 0 min 0 min 0 W/m 19,3 km/h (3 Bft) 100,00 %
24.03.2023 06:22 11,2 C 10,6 C 6,1 C 90 % 1001,1 hPa 0,0 l/m 0 min 0 min 0 W/m 25,7 km/h (4 Bft) 100,00 %
24.03.2023 06:24 11,2 C 10,0 C 6,1 C 89 % 1001,0 hPa 0,0 l/m 0 min 0 min 0 W/m 25,7 km/h (4 Bft) 95,74 %
24.03.2023 06:26 11,1 C 10,0 C 6,1 C 89 % 1001,1 hPa 0,0 l/m 0 min 0 min 0 W/m 16,1 km/h (3 Bft) 100,00 %
24.03.2023 06:28 11,1 C 10,0 C 6,1 C 89 % 1001,2 hPa 0,0 l/m 0 min 0 min 0 W/m 12,9 km/h (3 Bft) 97,87 %
24.03.2023 06:30 11,1 C 10,0 C 5,6 C 89 % 1001,2 hPa 0,0 l/m 0 min 0 min 0 W/m 16,1 km/h (3 Bft) 95,74 %
24.03.2023 06:32 11,0 C 10,0 C 5,6 C 89 % 1001,4 hPa 0,0 l/m 0 min 0 min 0 W/m 19,3 km/h (3 Bft) 97,87 %
24.03.2023 06:34 10,9 C 10,0 C 5,6 C 89 % 1001,3 hPa 0,0 l/m 0 min 0 min 0 W/m 22,5 km/h (4 Bft) 97,87 %
24.03.2023 06:36 10,9 C 10,0 C 5,6 C 89 % 1001,4 hPa 0,0 l/m 0 min 0 min 0 W/m 19,3 km/h (3 Bft) 95,74 %
24.03.2023 06:38 10,8 C 10,0 C 5,6 C 89 % 1001,5 hPa 0,0 l/m 0 min 0 min 0 W/m 29,0 km/h (5 Bft) 97,87 %
24.03.2023 06:40 10,8 C 10,0 C 5,6 C 89 % 1001,5 hPa 0,0 l/m 0 min 0 min 4 W/m 16,1 km/h (3 Bft) 95,65 %
24.03.2023 06:42 10,7 C 10,0 C 5,6 C 89 % 1001,6 hPa 0,0 l/m 0 min 0 min 5 W/m 16,1 km/h (3 Bft) 93,62 %
24.03.2023 06:44 10,7 C 10,0 C 5,6 C 89 % 1001,6 hPa 0,0 l/m 0 min 0 min 5 W/m 19,3 km/h (3 Bft) 97,87 %
24.03.2023 06:46 10,6 C 10,0 C 5,6 C 89 % 1001,7 hPa 0,0 l/m 0 min 0 min 7 W/m 29,0 km/h (5 Bft) 93,62 %
24.03.2023 06:48 10,6 C 10,0 C 5,6 C 89 % 1001,8 hPa 0,0 l/m 0 min 0 min 7 W/m 25,7 km/h (4 Bft) 95,74 %
24.03.2023 06:50 10,5 C 10,0 C 5,0 C 88 % 1001,8 hPa 0,0 l/m 0 min 0 min 7 W/m 25,7 km/h (4 Bft) 97,87 %
24.03.2023 06:52 10,4 C 9,4 C 5,0 C 87 % 1001,8 hPa 0,0 l/m 0 min 0 min 7 W/m 25,7 km/h (4 Bft) 97,87 %
24.03.2023 06:54 10,4 C 9,4 C 5,0 C 87 % 1001,9 hPa 0,0 l/m 0 min 0 min 9 W/m 22,5 km/h (4 Bft) 91,30 %
24.03.2023 06:56 10,3 C 9,4 C 5,0 C 87 % 1001,9 hPa 0,0 l/m 0 min 0 min 10 W/m 19,3 km/h (3 Bft) 97,87 %
24.03.2023 06:58 10,3 C 9,4 C 5,0 C 87 % 1001,9 hPa 0,0 l/m 0 min 0 min 11 W/m 35,4 km/h (5 Bft) 97,87 %
24.03.2023 07:00 10,2 C 9,4 C 5,0 C 86 % 1002,1 hPa 0,0 l/m 0 min 0 min 12 W/m 22,5 km/h (4 Bft) 95,74 %
24.03.2023 07:02 10,2 C 9,4 C 5,0 C 86 % 1002,0 hPa 0,0 l/m 0 min 0 min 15 W/m 25,7 km/h (4 Bft) 97,87 %
24.03.2023 07:04 10,2 C 9,4 C 4,4 C 86 % 1002,0 hPa 0,0 l/m 0 min 0 min 17 W/m 22,5 km/h (4 Bft) 93,62 %
24.03.2023 07:06 10,2 C 9,4 C 5,0 C 86 % 1002,0 hPa 0,0 l/m 0 min 0 min 20 W/m 29,0 km/h (5 Bft) 95,83 %
24.03.2023 07:08 10,1 C 9,4 C 4,4 C 86 % 1002,0 hPa 0,0 l/m 0 min 0 min 20 W/m 25,7 km/h (4 Bft) 95,65 %
24.03.2023 07:10 10,1 C 9,4 C 5,0 C 86 % 1002,1 hPa 0,0 l/m 0 min 0 min 19 W/m 16,1 km/h (3 Bft) 97,37 %
24.03.2023 07:12 10,1 C 9,4 C 5,0 C 86 % 1002,0 hPa 0,0 l/m 0 min 0 min 15 W/m 16,1 km/h (3 Bft) 95,74 %
24.03.2023 07:14 10,1 C 9,4 C 5,0 C 86 % 1002,1 hPa 0,0 l/m 0 min 0 min 13 W/m 16,1 km/h (3 Bft) 97,87 %
24.03.2023 07:16 10,1 C 9,4 C 5,0 C 86 % 1002,0 hPa 0,0 l/m 0 min 0 min 14 W/m 16,1 km/h (3 Bft) 95,74 %
24.03.2023 07:18 10,1 C 9,4 C 5,0 C 86 % 1002,0 hPa 0,0 l/m 0 min 0 min 14 W/m 16,1 km/h (3 Bft) 95,74 %
24.03.2023 07:20 10,1 C 9,4 C 5,0 C 86 % 1002,1 hPa 0,0 l/m 0 min 0 min 17 W/m 29,0 km/h (5 Bft) 95,74 %
24.03.2023 07:22 10,1 C 9,4 C 5,0 C 86 % 1002,2 hPa 0,0 l/m 0 min 0 min 18 W/m 12,9 km/h (3 Bft) 95,74 %
24.03.2023 07:24 10,1 C 9,4 C 5,0 C 86 % 1002,2 hPa 0,0 l/m 0 min 0 min 18 W/m 16,1 km/h (3 Bft) 91,49 %
24.03.2023 07:26 10,1 C 9,4 C 5,0 C 86 % 1002,2 hPa 0,0 l/m 0 min 0 min 18 W/m 12,9 km/h (3 Bft) 95,65 %
24.03.2023 07:28 10,1 C 9,4 C 5,0 C 86 % 1002,3 hPa 0,0 l/m 0 min 0 min 20 W/m 25,7 km/h (4 Bft) 93,62 %
24.03.2023 07:30 10,1 C 9,4 C 5,0 C 87 % 1002,3 hPa 0,0 l/m 0 min 0 min 25 W/m 25,7 km/h (4 Bft) 95,74 %
24.03.2023 07:32 10,1 C 9,4 C 5,0 C 87 % 1002,2 hPa 0,0 l/m 0 min 0 min 35 W/m 12,9 km/h (3 Bft) 93,62 %
24.03.2023 07:34 10,1 C 9,4 C 5,0 C 86 % 1002,3 hPa 0,0 l/m 0 min 0 min 36 W/m 16,1 km/h (3 Bft) 97,87 %
24.03.2023 07:36 10,1 C 9,4 C 5,0 C 87 % 1002,4 hPa 0,0 l/m 0 min 0 min 26 W/m 22,5 km/h (4 Bft) 95,74 %
24.03.2023 07:38 10,1 C 9,4 C 5,0 C 87 % 1002,4 hPa 0,0 l/m 0 min 0 min 23 W/m 16,1 km/h (3 Bft) 93,48 %
24.03.2023 07:40 10,1 C 9,4 C 5,0 C 87 % 1002,4 hPa 0,0 l/m 0 min 0 min 24 W/m 16,1 km/h (3 Bft) 93,62 %
24.03.2023 07:42 10,0 C 9,4 C 5,0 C 87 % 1002,4 hPa 0,0 l/m 0 min 0 min 28 W/m 12,9 km/h (3 Bft) 95,74 %
24.03.2023 07:44 10,0 C 9,4 C 5,0 C 87 % 1002,3 hPa 0,0 l/m 0 min 0 min 30 W/m 32,2 km/h (5 Bft) 93,62 %
24.03.2023 07:46 10,0 C 9,4 C 5,0 C 87 % 1002,4 hPa 0,0 l/m 0 min 0 min 33 W/m 16,1 km/h (3 Bft) 97,87 %
24.03.2023 07:48 10,0 C 9,4 C 5,0 C 87 % 1002,3 hPa 0,0 l/m 0 min 0 min 32 W/m 19,3 km/h (3 Bft) 97,87 %
24.03.2023 07:50 10,0 C 9,4 C 5,0 C 87 % 1002,3 hPa 0,0 l/m 0 min 0 min 31 W/m 6,4 km/h (2 Bft) 95,74 %
24.03.2023 07:52 10,0 C 9,4 C 5,0 C 87 % 1002,3 hPa 0,0 l/m 0 min 0 min 28 W/m 19,3 km/h (3 Bft) 95,65 %
24.03.2023 07:54 10,0 C 9,4 C 5,0 C 87 % 1002,3 hPa 0,0 l/m 0 min 0 min 29 W/m 16,1 km/h (3 Bft) 95,74 %
24.03.2023 07:56 10,0 C 9,4 C 5,0 C 87 % 1002,3 hPa 0,0 l/m 0 min 0 min 32 W/m 19,3 km/h (3 Bft) 97,87 %
24.03.2023 07:58 10,0 C 9,4 C 5,0 C 87 % 1002,3 hPa 0,0 l/m 0 min 0 min 36 W/m 19,3 km/h (3 Bft) 97,87 %
24.03.2023 08:00 10,0 C 9,4 C 5,6 C 87 % 1002,5 hPa 0,0 l/m 0 min 0 min 36 W/m 19,3 km/h (3 Bft) 97,87 %
24.03.2023 08:02 10,1 C 9,4 C 5,6 C 87 % 1002,5 hPa 0,0 l/m 0 min 0 min 39 W/m 16,1 km/h (3 Bft) 95,74 %
24.03.2023 08:04 10,1 C 9,4 C 5,6 C 87 % 1002,4 hPa 0,0 l/m 0 min 0 min 40 W/m 22,5 km/h (4 Bft) 97,92 %
24.03.2023 08:06 10,1 C 9,4 C 5,6 C 87 % 1002,5 hPa 0,0 l/m 0 min 0 min 45 W/m 16,1 km/h (3 Bft) 95,74 %
24.03.2023 08:08 10,1 C 9,4 C 5,6 C 87 % 1002,5 hPa 0,0 l/m 0 min 0 min 46 W/m 12,9 km/h (3 Bft) 46,51 %
24.03.2023 08:10 10,1 C 9,4 C 5,6 C 87 % 1002,4 hPa 0,0 l/m 0 min 0 min 43 W/m 9,7 km/h (2 Bft) 97,87 %
24.03.2023 08:12 10,1 C 9,4 C 6,1 C 87 % 1002,4 hPa 0,0 l/m 0 min 0 min 46 W/m 22,5 km/h (4 Bft) 97,87 %
24.03.2023 08:14 10,1 C 9,4 C 6,1 C 87 % 1002,5 hPa 0,0 l/m 0 min 0 min 54 W/m 22,5 km/h (4 Bft) 95,74 %
24.03.2023 08:16 10,2 C 10,0 C 6,1 C 87 % 1002,4 hPa 0,0 l/m 0 min 0 min 59 W/m 12,9 km/h (3 Bft) 100,00 %
24.03.2023 08:18 10,2 C 10,0 C 6,1 C 87 % 1002,4 hPa 0,0 l/m 0 min 0 min 60 W/m 25,7 km/h (4 Bft) 95,65 %
24.03.2023 08:20 10,3 C 10,0 C 6,1 C 87 % 1002,6 hPa 0,0 l/m 0 min 0 min 61 W/m 35,4 km/h (5 Bft) 95,74 %
24.03.2023 08:22 10,3 C 10,0 C 6,1 C 87 % 1002,5 hPa 0,0 l/m 0 min 0 min 70 W/m 12,9 km/h (3 Bft) 100,00 %
24.03.2023 08:24 10,4 C 10,0 C 6,7 C 87 % 1002,5 hPa 0,0 l/m 0 min 0 min 72 W/m 25,7 km/h (4 Bft) 100,00 %
24.03.2023 08:26 10,4 C 10,6 C 6,7 C 87 % 1002,6 hPa 0,0 l/m 0 min 0 min 65 W/m 22,5 km/h (4 Bft) 97,87 %
24.03.2023 08:28 10,5 C 10,6 C 6,7 C 87 % 1002,6 hPa 0,0 l/m 0 min 0 min 56 W/m 19,3 km/h (3 Bft) 100,00 %
24.03.2023 08:30 10,6 C 10,6 C 6,7 C 87 % 1002,6 hPa 0,0 l/m 0 min 0 min 71 W/m 25,7 km/h (4 Bft) 100,00 %
24.03.2023 08:32 10,6 C 10,6 C 6,7 C 87 % 1002,7 hPa 0,0 l/m 2 min 0 min 154 W/m 19,3 km/h (3 Bft) 100,00 %
24.03.2023 08:34 10,6 C 10,6 C 6,7 C 87 % 1002,6 hPa 0,0 l/m 0 min 0 min 151 W/m 29,0 km/h (5 Bft) 100,00 %
24.03.2023 08:36 10,6 C 10,6 C 6,7 C 87 % 1002,6 hPa 0,0 l/m 0 min 0 min 103 W/m 32,2 km/h (5 Bft) 100,00 %
24.03.2023 08:38 10,7 C 10,6 C 6,7 C 86 % 1002,5 hPa 0,0 l/m 0 min 0 min 79 W/m 22,5 km/h (4 Bft) 100,00 %
24.03.2023 08:40 10,7 C 10,6 C 6,7 C 86 % 1002,6 hPa 0,0 l/m 0 min 0 min 78 W/m 22,5 km/h (4 Bft) 100,00 %
24.03.2023 08:42 10,8 C 10,6 C 6,7 C 86 % 1002,6 hPa 0,0 l/m 0 min 0 min 91 W/m 29,0 km/h (5 Bft) 97,87 %
24.03.2023 08:44 10,8 C 10,6 C 6,7 C 86 % 1002,5 hPa 0,0 l/m 0 min 0 min 132 W/m 22,5 km/h (4 Bft) 100,00 %
24.03.2023 08:46 10,9 C 11,1 C 7,2 C 85 % 1002,6 hPa 0,0 l/m 2 min 0 min 234 W/m 25,7 km/h (4 Bft) 100,00 %
24.03.2023 08:48 10,9 C 11,1 C 7,2 C 85 % 1002,6 hPa 0,0 l/m 2 min 0 min 339 W/m 19,3 km/h (3 Bft) 100,00 %
24.03.2023 08:50 11,0 C 11,7 C 7,2 C 85 % 1002,7 hPa 0,0 l/m 2 min 0 min 355 W/m 19,3 km/h (3 Bft) 100,00 %
24.03.2023 08:52 11,1 C 12,8 C 7,2 C 85 % 1002,8 hPa 0,0 l/m 2 min 0 min 338 W/m 19,3 km/h (3 Bft) 97,87 %
24.03.2023 08:54 11,2 C 13,3 C 7,2 C 85 % 1002,8 hPa 0,0 l/m 2 min 0 min 297 W/m 12,9 km/h (3 Bft) 97,87 %
24.03.2023 08:56 11,2 C 13,3 C 7,2 C 85 % 1002,8 hPa 0,0 l/m 0 min 0 min 180 W/m 12,9 km/h (3 Bft) 100,00 %
24.03.2023 08:58 11,3 C 13,9 C 7,2 C 84 % 1002,8 hPa 0,0 l/m 2 min 0 min 188 W/m 19,3 km/h (3 Bft) 100,00 %
24.03.2023 09:00 11,3 C 15,0 C 7,8 C 84 % 1002,7 hPa 0,0 l/m 2 min 0 min 316 W/m 19,3 km/h (3 Bft) 100,00 %
24.03.2023 09:02 11,4 C 15,6 C 7,8 C 83 % 1002,9 hPa 0,0 l/m 2 min 0 min 334 W/m 19,3 km/h (3 Bft) 100,00 %
24.03.2023 09:04 11,5 C 15,0 C 7,8 C 83 % 1002,9 hPa 0,0 l/m 2 min 0 min 325 W/m 19,3 km/h (3 Bft) 97,87 %
24.03.2023 09:06 11,6 C 15,6 C 8,3 C 83 % 1003,0 hPa 0,0 l/m 2 min 0 min 247 W/m 22,5 km/h (4 Bft) 100,00 %
24.03.2023 09:08 11,7 C 15,0 C 8,3 C 82 % 1003,0 hPa 0,0 l/m 2 min 0 min 279 W/m 25,7 km/h (4 Bft) 100,00 %
24.03.2023 09:10 11,8 C 15,6 C 8,3 C 82 % 1003,0 hPa 0,0 l/m 2 min 0 min 230 W/m 25,7 km/h (4 Bft) 100,00 %
24.03.2023 09:12 11,8 C 14,4 C 8,3 C 82 % 1003,1 hPa 0,0 l/m 2 min 0 min 297 W/m 19,3 km/h (3 Bft) 100,00 %
24.03.2023 09:14 11,8 C 13,9 C 8,3 C 81 % 1003,1 hPa 0,0 l/m 0 min 0 min 164 W/m 22,5 km/h (4 Bft) 97,87 %
24.03.2023 09:16 11,8 C 13,3 C 7,8 C 81 % 1003,0 hPa 0,0 l/m 0 min 0 min 146 W/m 19,3 km/h (3 Bft) 97,87 %
24.03.2023 09:18 11,7 C 12,8 C 7,8 C 80 % 1003,0 hPa 0,0 l/m 0 min 0 min 140 W/m 19,3 km/h (3 Bft) 97,87 %
24.03.2023 09:20 11,7 C 12,8 C 7,8 C 81 % 1003,1 hPa 0,0 l/m 0 min 0 min 191 W/m 32,2 km/h (5 Bft) 97,87 %
24.03.2023 09:22 11,7 C 12,8 C 7,8 C 80 % 1003,1 hPa 0,0 l/m 2 min 0 min 227 W/m 29,0 km/h (5 Bft) 95,74 %
24.03.2023 09:24 11,6 C 12,2 C 7,8 C 81 % 1003,1 hPa 0,0 l/m 0 min 0 min 98 W/m 25,7 km/h (4 Bft) 97,83 %
24.03.2023 09:26 11,6 C 12,2 C 7,8 C 81 % 1003,1 hPa 0,0 l/m 0 min 0 min 99 W/m 16,1 km/h (3 Bft) 97,87 %
24.03.2023 09:28 11,6 C 13,9 C 7,8 C 81 % 1003,0 hPa 0,0 l/m 0 min 0 min 91 W/m 16,1 km/h (3 Bft) 97,87 %
24.03.2023 09:30 11,6 C 13,3 C 7,8 C 81 % 1003,1 hPa 0,0 l/m 0 min 0 min 123 W/m 22,5 km/h (4 Bft) 95,74 %
24.03.2023 09:32 11,6 C 13,3 C 7,8 C 81 % 1003,1 hPa 0,0 l/m 0 min 0 min 176 W/m 12,9 km/h (3 Bft) 93,62 %
24.03.2023 09:34 11,7 C 13,9 C 7,8 C 81 % 1003,1 hPa 0,0 l/m 0 min 0 min 170 W/m 12,9 km/h (3 Bft) 95,74 %
24.03.2023 09:36 11,7 C 14,4 C 7,8 C 81 % 1003,2 hPa 0,0 l/m 0 min 0 min 216 W/m 19,3 km/h (3 Bft) 93,62 %
24.03.2023 09:38 11,8 C 14,4 C 8,3 C 81 % 1003,3 hPa 0,0 l/m 0 min 0 min 206 W/m 16,1 km/h (3 Bft) 95,65 %
24.03.2023 09:40 11,8 C 14,4 C 8,3 C 81 % 1003,2 hPa 0,0 l/m 0 min 0 min 206 W/m 19,3 km/h (3 Bft) 95,74 %
24.03.2023 09:42 11,9 C 15,0 C 8,3 C 81 % 1003,2 hPa 0,0 l/m 2 min 0 min 367 W/m 22,5 km/h (4 Bft) 93,62 %
24.03.2023 09:44 12,0 C 15,6 C 8,3 C 81 % 1003,2 hPa 0,0 l/m 2 min 0 min 493 W/m 25,7 km/h (4 Bft) 95,74 %
24.03.2023 09:46 12,1 C 15,0 C 8,3 C 81 % 1003,2 hPa 0,0 l/m 2 min 0 min 234 W/m 19,3 km/h (3 Bft) 93,62 %
24.03.2023 09:48 12,2 C 15,6 C 8,9 C 80 % 1003,1 hPa 0,0 l/m 0 min 0 min 155 W/m 29,0 km/h (5 Bft) 95,74 %
24.03.2023 09:50 12,2 C 15,6 C 8,9 C 80 % 1003,1 hPa 0,0 l/m 2 min 0 min 347 W/m 29,0 km/h (5 Bft) 95,74 %
24.03.2023 09:52 12,3 C 15,6 C 8,9 C 80 % 1003,2 hPa 0,0 l/m 2 min 0 min 320 W/m 32,2 km/h (5 Bft) 95,65 %
24.03.2023 09:54 12,3 C 15,0 C 8,9 C 80 % 1003,1 hPa 0,0 l/m 2 min 0 min 320 W/m 16,1 km/h (3 Bft) 97,87 %
24.03.2023 09:56 12,4 C 15,6 C 8,9 C 80 % 1003,1 hPa 0,0 l/m 2 min 0 min 242 W/m 16,1 km/h (3 Bft) 97,87 %
24.03.2023 09:58 12,6 C 15,0 C 8,9 C 80 % 1003,3 hPa 0,0 l/m 2 min 0 min 301 W/m 19,3 km/h (3 Bft) 95,74 %
24.03.2023 10:00 12,6 C 15,0 C 8,9 C 80 % 1003,3 hPa 0,0 l/m 0 min 0 min 183 W/m 9,7 km/h (2 Bft) 97,87 %
24.03.2023 10:02 12,7 C 15,0 C 8,9 C 79 % 1003,3 hPa 0,0 l/m 2 min 0 min 517 W/m 22,5 km/h (4 Bft) 97,87 %
24.03.2023 10:04 12,7 C 14,4 C 8,9 C 79 % 1003,3 hPa 0,0 l/m 2 min 0 min 338 W/m 25,7 km/h (4 Bft) 97,87 %
24.03.2023 10:06 12,6 C 15,0 C 8,9 C 78 % 1003,3 hPa 0,0 l/m 2 min 0 min 401 W/m 19,3 km/h (3 Bft) 97,83 %
24.03.2023 10:08 12,7 C 16,1 C 9,4 C 79 % 1003,3 hPa 0,0 l/m 2 min 0 min 616 W/m 19,3 km/h (3 Bft) 97,87 %
24.03.2023 10:10 12,8 C 16,7 C 9,4 C 79 % 1003,4 hPa 0,0 l/m 2 min 0 min 526 W/m 22,5 km/h (4 Bft) 97,87 %
24.03.2023 10:12 12,9 C 15,6 C 9,4 C 79 % 1003,3 hPa 0,0 l/m 2 min 0 min 401 W/m 22,5 km/h (4 Bft) 97,87 %
24.03.2023 10:14 12,9 C 15,6 C 9,4 C 78 % 1003,3 hPa 0,0 l/m 2 min 0 min 263 W/m 19,3 km/h (3 Bft) 100,00 %
24.03.2023 10:16 13,0 C 16,1 C 9,4 C 79 % 1003,4 hPa 0,0 l/m 2 min 0 min 505 W/m 16,1 km/h (3 Bft) 97,87 %
24.03.2023 10:18 13,1 C 15,6 C 9,4 C 79 % 1003,4 hPa 0,0 l/m 2 min 0 min 282 W/m 19,3 km/h (3 Bft) 100,00 %
24.03.2023 10:20 13,1 C 16,1 C 10,0 C 79 % 1003,3 hPa 0,0 l/m 0 min 0 min 204 W/m 12,9 km/h (3 Bft) 100,00 %
24.03.2023 10:22 13,2 C 16,7 C 10,0 C 78 % 1003,4 hPa 0,0 l/m 0 min 0 min 204 W/m 16,1 km/h (3 Bft) 100,00 %
24.03.2023 10:24 13,3 C 15,6 C 10,0 C 78 % 1003,4 hPa 0,0 l/m 0 min 0 min 204 W/m 16,1 km/h (3 Bft) 97,87 %
24.03.2023 10:26 13,3 C 15,6 C 10,0 C 78 % 1003,4 hPa 0,0 l/m 0 min 0 min 204 W/m 12,9 km/h (3 Bft) 97,87 %
24.03.2023 10:28 13,3 C 15,6 C 10,0 C 78 % 1003,4 hPa 0,0 l/m 0 min 0 min 226 W/m 19,3 km/h (3 Bft) 100,00 %
24.03.2023 10:30 13,2 C 14,4 C 9,4 C 76 % 1003,5 hPa 0,0 l/m 0 min 0 min 222 W/m 32,2 km/h (5 Bft) 100,00 %
24.03.2023 10:32 13,2 C 16,1 C 10,6 C 76 % 1003,4 hPa 0,0 l/m 2 min 0 min 413 W/m 19,3 km/h (3 Bft) 100,00 %
24.03.2023 10:34 13,2 C 16,7 C 11,1 C 77 % 1003,4 hPa 0,0 l/m 2 min 0 min 535 W/m 29,0 km/h (5 Bft) 100,00 %
24.03.2023 10:36 13,3 C 17,8 C 11,7 C 77 % 1003,5 hPa 0,0 l/m 2 min 0 min 459 W/m 25,7 km/h (4 Bft) 100,00 %
24.03.2023 10:38 13,4 C 15,6 C 11,1 C 77 % 1003,5 hPa 0,0 l/m 2 min 0 min 335 W/m 22,5 km/h (4 Bft) 100,00 %
24.03.2023 10:40 13,3 C 14,4 C 10,6 C 76 % 1003,5 hPa 0,0 l/m 2 min 0 min 281 W/m 29,0 km/h (5 Bft) 97,87 %
24.03.2023 10:42 13,3 C 14,4 C 10,6 C 76 % 1003,5 hPa 0,0 l/m 0 min 0 min 218 W/m 22,5 km/h (4 Bft) 100,00 %
24.03.2023 10:44 13,2 C 15,0 C 10,6 C 75 % 1003,6 hPa 0,0 l/m 0 min 0 min 252 W/m 25,7 km/h (4 Bft) 100,00 %
24.03.2023 10:46 13,1 C 13,9 C 10,0 C 75 % 1003,5 hPa 0,0 l/m 0 min 0 min 245 W/m 22,5 km/h (4 Bft) 100,00 %
24.03.2023 10:48 13,1 C 15,0 C 10,6 C 75 % 1003,5 hPa 0,0 l/m 0 min 0 min 245 W/m 19,3 km/h (3 Bft) 100,00 %
24.03.2023 10:50 13,1 C 14,4 C 10,6 C 76 % 1003,5 hPa 0,0 l/m 0 min 0 min 262 W/m 22,5 km/h (4 Bft) 100,00 %
24.03.2023 10:52 13,1 C 13,9 C 10,0 C 75 % 1003,6 hPa 0,0 l/m 0 min 0 min 235 W/m 25,7 km/h (4 Bft) 97,87 %
24.03.2023 10:54 13,0 C 13,9 C 10,0 C 75 % 1003,6 hPa 0,0 l/m 0 min 0 min 278 W/m 22,5 km/h (4 Bft) 100,00 %
24.03.2023 10:56 13,0 C 15,0 C 10,6 C 75 % 1003,6 hPa 0,0 l/m 2 min 0 min 346 W/m 22,5 km/h (4 Bft) 100,00 %
24.03.2023 10:58 13,1 C 14,4 C 10,6 C 75 % 1003,7 hPa 0,0 l/m 0 min 0 min 260 W/m 16,1 km/h (3 Bft) 100,00 %
24.03.2023 11:00 13,1 C 13,9 C 10,0 C 75 % 1003,7 hPa 0,0 l/m 0 min 0 min 252 W/m 19,3 km/h (3 Bft) 65,96 %
24.03.2023 11:02 13,0 C 13,3 C 9,4 C 75 % 1003,8 hPa 0,0 l/m 0 min 0 min 271 W/m 41,8 km/h (6 Bft) 88,89 %
24.03.2023 11:04 12,9 C 13,3 C 9,4 C 75 % 1003,7 hPa 0,0 l/m 0 min 0 min 246 W/m 19,3 km/h (3 Bft) 100,00 %
24.03.2023 11:06 12,9 C 13,3 C 9,4 C 75 % 1003,8 hPa 0,0 l/m 0 min 0 min 206 W/m 32,2 km/h (5 Bft) 97,87 %
24.03.2023 11:08 12,8 C 13,3 C 9,4 C 75 % 1003,8 hPa 0,0 l/m 0 min 0 min 168 W/m 25,7 km/h (4 Bft) 97,87 %
24.03.2023 11:10 12,8 C 16,1 C 10,6 C 75 % 1003,8 hPa 0,0 l/m 0 min 0 min 193 W/m 22,5 km/h (4 Bft) 97,87 %
24.03.2023 11:12 13,1 C 16,7 C 11,7 C 76 % 1003,9 hPa 0,0 l/m 2 min 0 min 737 W/m 35,4 km/h (5 Bft) 100,00 %
24.03.2023 11:14 13,1 C 15,6 C 11,1 C 74 % 1003,9 hPa 0,0 l/m 0 min 0 min 239 W/m 22,5 km/h (4 Bft) 100,00 %
24.03.2023 11:16 13,2 C 16,7 C 11,7 C 75 % 1003,9 hPa 0,0 l/m 0 min 0 min 260 W/m 16,1 km/h (3 Bft) 100,00 %
24.03.2023 11:18 13,3 C 18,3 C 12,8 C 74 % 1003,9 hPa 0,0 l/m 2 min 0 min 780 W/m 25,7 km/h (4 Bft) 91,49 %
24.03.2023 11:20 13,5 C 19,4 C 13,9 C 74 % 1004,0 hPa 0,0 l/m 2 min 0 min 844 W/m 12,9 km/h (3 Bft) 95,74 %
24.03.2023 11:22 13,7 C 18,3 C 13,3 C 74 % 1004,0 hPa 0,0 l/m 2 min 0 min 406 W/m 16,1 km/h (3 Bft) 93,62 %
24.03.2023 11:24 13,8 C 16,7 C 12,8 C 73 % 1004,0 hPa 0,0 l/m 0 min 0 min 262 W/m 19,3 km/h (3 Bft) 95,74 %
24.03.2023 11:26 13,7 C 15,0 C 11,7 C 73 % 1004,0 hPa 0,0 l/m 0 min 0 min 154 W/m 16,1 km/h (3 Bft) 95,74 %
24.03.2023 11:28 13,6 C 16,7 C 11,7 C 73 % 1004,1 hPa 0,0 l/m 0 min 0 min 144 W/m 22,5 km/h (4 Bft) 95,65 %
24.03.2023 11:30 13,6 C 15,6 C 11,7 C 73 % 1004,0 hPa 0,0 l/m 2 min 0 min 668 W/m 16,1 km/h (3 Bft) 95,74 %
24.03.2023 11:32 13,5 C 14,4 C 10,6 C 73 % 1004,0 hPa 0,0 l/m 0 min 0 min 182 W/m 19,3 km/h (3 Bft) 97,62 %
24.03.2023 11:34 13,4 C 13,9 C 10,6 C 74 % 1004,1 hPa 0,0 l/m 0 min 0 min 207 W/m 19,3 km/h (3 Bft) 95,74 %
24.03.2023 11:36 13,3 C 14,4 C 10,6 C 75 % 1004,1 hPa 0,0 l/m 0 min 0 min 257 W/m 12,9 km/h (3 Bft) 95,74 %
24.03.2023 11:38 13,3 C 13,9 C 10,0 C 75 % 1004,1 hPa 0,0 l/m 0 min 0 min 253 W/m 22,5 km/h (4 Bft) 96,00 %
24.03.2023 11:40 13,3 C 13,9 C 10,0 C 74 % 1004,2 hPa 0,0 l/m 0 min 0 min 239 W/m 29,0 km/h (5 Bft) 95,92 %
24.03.2023 11:42 13,3 C 13,9 C 10,0 C 74 % 1004,1 hPa 0,0 l/m 0 min 0 min 294 W/m 16,1 km/h (3 Bft) 95,65 %
24.03.2023 11:44 13,3 C 13,9 C 9,4 C 74 % 1004,1 hPa 0,0 l/m 0 min 0 min 207 W/m 22,5 km/h (4 Bft) 93,62 %
24.03.2023 11:46 13,2 C 13,3 C 9,4 C 74 % 1004,1 hPa 0,0 l/m 0 min 0 min 216 W/m 16,1 km/h (3 Bft) 95,74 %
24.03.2023 11:48 13,2 C 13,3 C 9,4 C 74 % 1004,1 hPa 0,0 l/m 0 min 0 min 213 W/m 19,3 km/h (3 Bft) 95,74 %
24.03.2023 11:50 13,2 C 13,9 C 9,4 C 75 % 1004,1 hPa 0,0 l/m 0 min 0 min 270 W/m 12,9 km/h (3 Bft) 95,74 %
24.03.2023 11:52 13,2 C 14,4 C 10,0 C 76 % 1004,2 hPa 0,0 l/m 2 min 0 min 327 W/m 12,9 km/h (3 Bft) 97,87 %
24.03.2023 11:54 13,3 C 14,4 C 10,6 C 76 % 1004,2 hPa 0,0 l/m 0 min 0 min 299 W/m 22,5 km/h (4 Bft) 95,74 %
24.03.2023 11:56 13,3 C 13,9 C 10,0 C 75 % 1004,1 hPa 0,0 l/m 0 min 0 min 272 W/m 16,1 km/h (3 Bft) 97,83 %
24.03.2023 11:58 13,4 C 14,4 C 10,0 C 76 % 1004,2 hPa 0,0 l/m 0 min 0 min 231 W/m 16,1 km/h (3 Bft) 95,74 %
24.03.2023 12:00 13,4 C 14,4 C 10,0 C 76 % 1004,1 hPa 0,0 l/m 0 min 0 min 263 W/m 16,1 km/h (3 Bft) 93,62 %
24.03.2023 12:02 13,6 C 15,6 C 11,1 C 76 % 1004,1 hPa 0,0 l/m 0 min 0 min 271 W/m 16,1 km/h (3 Bft) 97,87 %
24.03.2023 12:04 13,7 C 15,6 C 10,6 C 74 % 1004,1 hPa 0,0 l/m 2 min 0 min 354 W/m 19,3 km/h (3 Bft) 95,74 %
24.03.2023 12:07 13,8 C 15,6 C 11,1 C 73 % 1003,9 hPa 0,0 l/m 3 min 0 min 339 W/m 29,0 km/h (5 Bft) 97,14 %
24.03.2023 12:08 13,8 C 15,6 C 11,1 C 73 % 1003,9 hPa 0,0 l/m 1 min 0 min 714 W/m 19,3 km/h (3 Bft) 95,65 %
24.03.2023 12:12 14,0 C 15,0 C 11,1 C 72 % 1003,9 hPa 0,0 l/m 4 min 0 min 612 W/m 19,3 km/h (3 Bft) 96,23 %
24.03.2023 12:14 14,2 C 15,6 C 11,1 C 73 % 1003,9 hPa 0,0 l/m 2 min 0 min 714 W/m 22,5 km/h (4 Bft) 93,62 %
24.03.2023 12:16 14,3 C 15,6 C 11,1 C 72 % 1003,9 hPa 0,0 l/m 2 min 0 min 773 W/m 19,3 km/h (3 Bft) 95,74 %
24.03.2023 12:18 14,3 C 15,6 C 11,1 C 71 % 1003,9 hPa 0,0 l/m 2 min 0 min 830 W/m 16,1 km/h (3 Bft) 93,62 %
24.03.2023 12:20 14,4 C 15,6 C 11,1 C 72 % 1003,9 hPa 0,0 l/m 2 min 0 min 830 W/m 16,1 km/h (3 Bft) 95,65 %
24.03.2023 12:22 14,4 C 15,6 C 11,1 C 72 % 1004,0 hPa 0,0 l/m 2 min 0 min 634 W/m 16,1 km/h (3 Bft) 95,74 %
24.03.2023 12:24 14,4 C 16,1 C 11,7 C 71 % 1003,9 hPa 0,0 l/m 2 min 0 min 553 W/m 16,1 km/h (3 Bft) 91,49 %
24.03.2023 12:26 14,6 C 15,6 C 11,7 C 71 % 1003,9 hPa 0,0 l/m 2 min 0 min 668 W/m 22,5 km/h (4 Bft) 95,74 %
24.03.2023 12:28 14,5 C 15,0 C 11,1 C 70 % 1004,0 hPa 0,0 l/m 0 min 0 min 213 W/m 16,1 km/h (3 Bft) 93,62 %
24.03.2023 12:30 14,4 C 15,0 C 11,1 C 69 % 1004,1 hPa 0,0 l/m 0 min 0 min 279 W/m 19,3 km/h (3 Bft) 95,74 %
24.03.2023 12:32 14,3 C 14,4 C 10,6 C 70 % 1004,1 hPa 0,0 l/m 0 min 0 min 248 W/m 19,3 km/h (3 Bft) 95,65 %
24.03.2023 12:34 14,3 C 13,9 C 10,6 C 69 % 1004,0 hPa 0,0 l/m 0 min 0 min 195 W/m 22,5 km/h (4 Bft) 93,62 %
24.03.2023 12:36 14,2 C 13,9 C 10,0 C 69 % 1004,0 hPa 0,0 l/m 0 min 0 min 172 W/m 12,9 km/h (3 Bft) 95,74 %
24.03.2023 12:38 14,1 C 13,9 C 10,0 C 70 % 1004,0 hPa 0,0 l/m 0 min 0 min 149 W/m 16,1 km/h (3 Bft) 97,87 %
24.03.2023 12:40 14,0 C 13,3 C 10,0 C 70 % 1004,0 hPa 0,0 l/m 0 min 0 min 135 W/m 22,5 km/h (4 Bft) 97,87 %
24.03.2023 12:42 13,9 C 13,3 C 9,4 C 71 % 1004,0 hPa 0,0 l/m 0 min 0 min 153 W/m 19,3 km/h (3 Bft) 95,74 %
24.03.2023 12:44 13,8 C 13,9 C 10,0 C 71 % 1004,1 hPa 0,0 l/m 0 min 0 min 206 W/m 32,2 km/h (5 Bft) 97,87 %
24.03.2023 12:46 13,7 C 13,9 C 10,0 C 71 % 1004,1 hPa 0,0 l/m 0 min 0 min 264 W/m 25,7 km/h (4 Bft) 97,83 %
24.03.2023 12:48 13,7 C 14,4 C 10,0 C 71 % 1004,1 hPa 0,0 l/m 2 min 0 min 324 W/m 12,9 km/h (3 Bft) 97,87 %
24.03.2023 12:50 13,8 C 16,1 C 10,6 C 72 % 1004,1 hPa 0,0 l/m 2 min 0 min 339 W/m 22,5 km/h (4 Bft) 95,74 %
24.03.2023 12:52 13,9 C 16,1 C 10,6 C 72 % 1004,1 hPa 0,0 l/m 0 min 0 min 304 W/m 16,1 km/h (3 Bft) 100,00 %
24.03.2023 12:54 14,0 C 16,7 C 10,6 C 72 % 1004,2 hPa 0,0 l/m 2 min 0 min 360 W/m 22,5 km/h (4 Bft) 97,87 %
24.03.2023 12:56 14,2 C 18,3 C 11,1 C 73 % 1004,2 hPa 0,0 l/m 2 min 0 min 373 W/m 19,3 km/h (3 Bft) 97,87 %
24.03.2023 12:58 14,3 C 20,0 C 11,1 C 73 % 1004,1 hPa 0,0 l/m 2 min 0 min 656 W/m 12,9 km/h (3 Bft) 97,87 %
24.03.2023 13:00 14,7 C 21,1 C 11,1 C 71 % 1004,1 hPa 0,0 l/m 2 min 0 min 891 W/m 16,1 km/h (3 Bft) 97,83 %
24.03.2023 13:02 14,8 C 18,9 C 11,1 C 70 % 1004,0 hPa 0,0 l/m 2 min 0 min 695 W/m 25,7 km/h (4 Bft) 97,87 %
24.03.2023 13:04 14,9 C 18,9 C 11,1 C 69 % 1004,0 hPa 0,0 l/m 2 min 0 min 350 W/m 35,4 km/h (5 Bft) 100,00 %
24.03.2023 13:06 14,9 C 18,9 C 11,1 C 68 % 1004,0 hPa 0,0 l/m 2 min 0 min 350 W/m 29,0 km/h (5 Bft) 96,61 %
24.03.2023 13:08 15,1 C 20,0 C 11,1 C 68 % 1004,0 hPa 0,0 l/m 2 min 0 min 581 W/m 25,7 km/h (4 Bft) 100,00 %
24.03.2023 13:10 15,2 C 20,0 C 11,7 C 69 % 1004,1 hPa 0,0 l/m 2 min 0 min 766 W/m 22,5 km/h (4 Bft) 97,87 %
24.03.2023 13:12 15,2 C 19,4 C 11,1 C 67 % 1004,0 hPa 0,0 l/m 2 min 0 min 781 W/m 25,7 km/h (4 Bft) 100,00 %
24.03.2023 13:14 15,2 C 18,3 C 11,1 C 68 % 1004,0 hPa 0,0 l/m 2 min 0 min 730 W/m 19,3 km/h (3 Bft) 97,87 %
24.03.2023 13:16 15,1 C 17,2 C 11,1 C 68 % 1004,0 hPa 0,0 l/m 2 min 0 min 728 W/m 19,3 km/h (3 Bft) 97,87 %
24.03.2023 13:18 14,9 C 15,6 C 10,6 C 68 % 1004,0 hPa 0,0 l/m 0 min 0 min 240 W/m 35,4 km/h (5 Bft) 100,00 %
24.03.2023 13:20 14,8 C 16,1 C 10,6 C 67 % 1003,9 hPa 0,0 l/m 2 min 0 min 316 W/m 29,0 km/h (5 Bft) 93,62 %
24.03.2023 13:22 14,8 C 18,9 C 11,1 C 68 % 1003,9 hPa 0,0 l/m 2 min 0 min 403 W/m 25,7 km/h (4 Bft) 95,74 %
24.03.2023 13:24 14,9 C 20,6 C 11,1 C 68 % 1003,8 hPa 0,0 l/m 2 min 0 min 682 W/m 25,7 km/h (4 Bft) 97,87 %
24.03.2023 13:26 15,2 C 21,1 C 11,7 C 69 % 1003,7 hPa 0,0 l/m 2 min 0 min 776 W/m 25,7 km/h (4 Bft) 91,30 %
24.03.2023 13:28 15,3 C 18,3 C 11,1 C 67 % 1003,8 hPa 0,0 l/m 2 min 0 min 402 W/m 19,3 km/h (3 Bft) 95,74 %
24.03.2023 13:30 15,2 C 16,7 C 11,1 C 67 % 1003,8 hPa 0,0 l/m 0 min 0 min 162 W/m 19,3 km/h (3 Bft) 97,87 %
24.03.2023 13:32 15,1 C 15,6 C 11,1 C 68 % 1003,8 hPa 0,0 l/m 0 min 0 min 136 W/m 19,3 km/h (3 Bft) 95,74 %
24.03.2023 13:34 14,9 C 14,4 C 10,6 C 68 % 1003,7 hPa 0,0 l/m 0 min 2 min 98 W/m 29,0 km/h (5 Bft) 97,87 %
24.03.2023 13:36 14,8 C 14,4 C 10,6 C 67 % 1003,7 hPa 0,0 l/m 0 min 0 min 127 W/m 19,3 km/h (3 Bft) 93,62 %
24.03.2023 13:38 14,7 C 16,7 C 10,6 C 69 % 1003,8 hPa 0,0 l/m 0 min 0 min 163 W/m 19,3 km/h (3 Bft) 97,87 %
24.03.2023 13:40 14,9 C 18,9 C 11,1 C 69 % 1003,7 hPa 0,0 l/m 2 min 0 min 321 W/m 16,1 km/h (3 Bft) 97,83 %
24.03.2023 13:42 15,1 C 20,6 C 11,7 C 69 % 1003,8 hPa 0,0 l/m 2 min 0 min 635 W/m 29,0 km/h (5 Bft) 93,62 %
24.03.2023 13:44 15,2 C 18,3 C 11,7 C 67 % 1003,7 hPa 0,0 l/m 2 min 0 min 633 W/m 25,7 km/h (4 Bft) 95,74 %
24.03.2023 13:46 15,2 C 16,7 C 11,1 C 67 % 1003,7 hPa 0,0 l/m 0 min 0 min 238 W/m 19,3 km/h (3 Bft) 97,87 %
24.03.2023 13:48 15,2 C 15,6 C 11,1 C 67 % 1003,6 hPa 0,0 l/m 0 min 0 min 207 W/m 25,7 km/h (4 Bft) 97,87 %
24.03.2023 13:50 15,1 C 15,6 C 11,1 C 67 % 1003,7 hPa 0,0 l/m 0 min 0 min 180 W/m 19,3 km/h (3 Bft) 97,87 %
24.03.2023 13:52 15,0 C 15,0 C 11,1 C 67 % 1003,7 hPa 0,0 l/m 0 min 0 min 176 W/m 32,2 km/h (5 Bft) 97,87 %
24.03.2023 13:54 14,9 C 15,0 C 11,1 C 67 % 1003,7 hPa 0,0 l/m 0 min 0 min 171 W/m 38,6 km/h (5 Bft) 95,65 %
24.03.2023 13:56 14,8 C 14,4 C 10,6 C 67 % 1003,7 hPa 0,0 l/m 0 min 0 min 146 W/m 35,4 km/h (5 Bft) 97,87 %
24.03.2023 13:58 14,8 C 14,4 C 10,6 C 67 % 1003,7 hPa 0,0 l/m 0 min 0 min 133 W/m 41,8 km/h (6 Bft) 97,87 %
24.03.2023 14:00 14,7 C 14,4 C 10,6 C 67 % 1003,7 hPa 0,0 l/m 0 min 0 min 128 W/m 22,5 km/h (4 Bft) 100,00 %
24.03.2023 14:02 14,6 C 13,9 C 10,6 C 67 % 1003,6 hPa 0,0 l/m 0 min 0 min 106 W/m 16,1 km/h (3 Bft) 100,00 %
24.03.2023 14:04 14,5 C 13,9 C 10,0 C 68 % 1003,6 hPa 0,0 l/m 0 min 0 min 122 W/m 22,5 km/h (4 Bft) 100,00 %
24.03.2023 14:06 14,3 C 13,9 C 10,0 C 68 % 1003,5 hPa 0,0 l/m 0 min 0 min 125 W/m 19,3 km/h (3 Bft) 98,28 %
24.03.2023 14:08 14,3 C 13,9 C 10,0 C 69 % 1003,6 hPa 0,0 l/m 0 min 0 min 170 W/m 16,1 km/h (3 Bft) 100,00 %
24.03.2023 14:10 14,3 C 13,9 C 10,0 C 69 % 1003,6 hPa 0,0 l/m 0 min 0 min 159 W/m 16,1 km/h (3 Bft) 100,00 %
24.03.2023 14:12 14,3 C 13,9 C 10,0 C 68 % 1003,5 hPa 0,0 l/m 0 min 0 min 138 W/m 25,7 km/h (4 Bft) 100,00 %
24.03.2023 14:14 14,3 C 13,9 C 10,0 C 67 % 1003,6 hPa 0,0 l/m 0 min 0 min 132 W/m 41,8 km/h (6 Bft) 100,00 %
24.03.2023 14:16 14,3 C 13,9 C 10,0 C 67 % 1003,7 hPa 0,0 l/m 0 min 0 min 134 W/m 19,3 km/h (3 Bft) 97,87 %
24.03.2023 14:18 14,3 C 13,9 C 10,0 C 67 % 1003,7 hPa 0,0 l/m 0 min 0 min 122 W/m 35,4 km/h (5 Bft) 97,87 %
24.03.2023 14:20 14,3 C 13,9 C 10,0 C 67 % 1003,7 hPa 0,0 l/m 0 min 0 min 109 W/m 41,8 km/h (6 Bft) 100,00 %
24.03.2023 14:22 14,3 C 13,9 C 10,0 C 67 % 1003,7 hPa 0,0 l/m 0 min 0 min 104 W/m 25,7 km/h (4 Bft) 97,87 %
24.03.2023 14:24 14,3 C 14,4 C 10,0 C 68 % 1003,8 hPa 0,0 l/m 0 min 0 min 127 W/m 22,5 km/h (4 Bft) 100,00 %
24.03.2023 14:26 14,3 C 15,0 C 10,0 C 68 % 1003,7 hPa 0,0 l/m 0 min 0 min 130 W/m 32,2 km/h (5 Bft) 100,00 %
24.03.2023 14:28 14,3 C 16,1 C 10,6 C 68 % 1003,7 hPa 0,0 l/m 2 min 0 min 409 W/m 19,3 km/h (3 Bft) 100,00 %
24.03.2023 14:30 14,5 C 16,7 C 10,6 C 68 % 1003,7 hPa 0,0 l/m 2 min 0 min 602 W/m 25,7 km/h (4 Bft) 100,00 %
24.03.2023 14:32 14,7 C 16,7 C 10,6 C 68 % 1003,6 hPa 0,0 l/m 2 min 0 min 622 W/m 35,4 km/h (5 Bft) 100,00 %
24.03.2023 14:34 14,8 C 16,7 C 10,6 C 67 % 1003,6 hPa 0,0 l/m 2 min 0 min 385 W/m 25,7 km/h (4 Bft) 100,00 %
24.03.2023 14:36 14,9 C 16,7 C 11,1 C 67 % 1003,5 hPa 0,0 l/m 2 min 0 min 290 W/m 25,7 km/h (4 Bft) 100,00 %
24.03.2023 14:38 15,0 C 16,1 C 10,6 C 67 % 1003,4 hPa 0,0 l/m 0 min 0 min 256 W/m 19,3 km/h (3 Bft) 100,00 %
24.03.2023 14:40 15,0 C 17,8 C 10,6 C 67 % 1003,5 hPa 0,0 l/m 2 min 0 min 600 W/m 22,5 km/h (4 Bft) 95,74 %
24.03.2023 14:42 15,1 C 17,2 C 11,1 C 66 % 1003,4 hPa 0,0 l/m 2 min 0 min 507 W/m 35,4 km/h (5 Bft) 97,87 %
24.03.2023 14:44 15,2 C 18,3 C 11,1 C 65 % 1003,4 hPa 0,0 l/m 2 min 0 min 329 W/m 32,2 km/h (5 Bft) 97,87 %
24.03.2023 14:46 15,3 C 16,7 C 11,1 C 65 % 1003,4 hPa 0,0 l/m 2 min 0 min 541 W/m 22,5 km/h (4 Bft) 97,87 %
24.03.2023 14:48 15,3 C 16,1 C 11,1 C 65 % 1003,4 hPa 0,0 l/m 0 min 0 min 218 W/m 25,7 km/h (4 Bft) 97,83 %
24.03.2023 14:50 15,3 C 15,6 C 11,1 C 65 % 1003,4 hPa 0,0 l/m 0 min 0 min 179 W/m 16,1 km/h (3 Bft) 97,87 %
24.03.2023 14:52 15,2 C 15,0 C 11,1 C 65 % 1003,4 hPa 0,0 l/m 0 min 0 min 190 W/m 19,3 km/h (3 Bft) 91,49 %
24.03.2023 14:54 15,2 C 16,1 C 11,1 C 65 % 1003,4 hPa 0,0 l/m 0 min 0 min 226 W/m 32,2 km/h (5 Bft) 97,87 %
24.03.2023 14:56 15,3 C 16,7 C 11,1 C 66 % 1003,4 hPa 0,0 l/m 2 min 0 min 329 W/m 32,2 km/h (5 Bft) 97,87 %
24.03.2023 14:58 15,5 C 17,2 C 11,7 C 64 % 1003,5 hPa 0,0 l/m 2 min 0 min 759 W/m 35,4 km/h (5 Bft) 97,87 %
24.03.2023 15:00 15,6 C 17,2 C 11,7 C 64 % 1003,4 hPa 0,0 l/m 2 min 0 min 681 W/m 32,2 km/h (5 Bft) 95,74 %
24.03.2023 15:02 15,6 C 16,7 C 11,1 C 64 % 1003,4 hPa 0,0 l/m 2 min 0 min 273 W/m 25,7 km/h (4 Bft) 95,65 %
24.03.2023 15:04 15,6 C 17,2 C 11,1 C 63 % 1003,4 hPa 0,0 l/m 2 min 0 min 443 W/m 29,0 km/h (5 Bft) 97,87 %
24.03.2023 15:06 15,7 C 16,7 C 11,7 C 64 % 1003,4 hPa 0,0 l/m 2 min 0 min 645 W/m 38,6 km/h (5 Bft) 97,87 %
24.03.2023 15:08 15,7 C 16,1 C 11,7 C 64 % 1003,5 hPa 0,0 l/m 2 min 0 min 334 W/m 19,3 km/h (3 Bft) 97,87 %
24.03.2023 15:10 15,7 C 15,6 C 11,1 C 65 % 1003,6 hPa 0,0 l/m 0 min 0 min 192 W/m 12,9 km/h (3 Bft) 93,62 %
24.03.2023 15:12 15,4 C 14,4 C 10,6 C 66 % 1003,5 hPa 0,0 l/m 0 min 0 min 131 W/m 19,3 km/h (3 Bft) 93,62 %
24.03.2023 15:14 15,0 C 13,3 C 10,0 C 69 % 1003,6 hPa 0,0 l/m 0 min 0 min 91 W/m 12,9 km/h (3 Bft) 95,65 %
24.03.2023 15:16 14,6 C 13,3 C 9,4 C 70 % 1003,5 hPa 0,0 l/m 0 min 0 min 78 W/m 12,9 km/h (3 Bft) 95,74 %
24.03.2023 15:18 14,3 C 13,3 C 9,4 C 70 % 1003,5 hPa 0,0 l/m 0 min 0 min 70 W/m 9,7 km/h (2 Bft) 95,74 %
24.03.2023 15:20 14,3 C 13,3 C 9,4 C 70 % 1003,5 hPa 0,0 l/m 0 min 0 min 62 W/m 16,1 km/h (3 Bft) 95,74 %
24.03.2023 15:22 14,0 C 12,8 C 9,4 C 72 % 1003,7 hPa 0,0 l/m 0 min 0 min 67 W/m 16,1 km/h (3 Bft) 93,62 %
24.03.2023 15:24 13,7 C 12,2 C 8,9 C 74 % 1003,8 hPa 0,0 l/m 0 min 2 min 72 W/m 19,3 km/h (3 Bft) 95,74 %
24.03.2023 15:26 13,4 C 12,2 C 8,3 C 76 % 1003,9 hPa 0,0 l/m 0 min 2 min 134 W/m 12,9 km/h (3 Bft) 93,62 %
24.03.2023 15:28 13,2 C 12,2 C 7,8 C 79 % 1003,9 hPa 0,0 l/m 0 min 2 min 181 W/m 12,9 km/h (3 Bft) 97,83 %
24.03.2023 15:30 12,9 C 12,2 C 7,8 C 81 % 1003,8 hPa 0,0 l/m 0 min 2 min 156 W/m 12,9 km/h (3 Bft) 93,62 %
24.03.2023 15:32 12,8 C 11,7 C 7,8 C 82 % 1003,8 hPa 0,0 l/m 0 min 0 min 128 W/m 16,1 km/h (3 Bft) 95,74 %
24.03.2023 15:34 12,6 C 12,8 C 7,8 C 83 % 1003,8 hPa 0,0 l/m 0 min 0 min 107 W/m 12,9 km/h (3 Bft) 95,74 %
24.03.2023 15:36 12,6 C 14,4 C 8,3 C 84 % 1003,8 hPa 0,0 l/m 2 min 0 min 547 W/m 9,7 km/h (2 Bft) 95,74 %
24.03.2023 15:38 12,7 C 15,6 C 8,9 C 85 % 1003,7 hPa 0,0 l/m 2 min 0 min 518 W/m 9,7 km/h (2 Bft) 95,74 %
24.03.2023 15:40 12,9 C 16,1 C 8,9 C 85 % 1003,7 hPa 0,0 l/m 2 min 0 min 499 W/m 12,9 km/h (3 Bft) 91,49 %
24.03.2023 15:42 13,0 C 16,7 C 9,4 C 84 % 1003,7 hPa 0,0 l/m 2 min 0 min 501 W/m 12,9 km/h (3 Bft) 93,88 %
24.03.2023 15:44 13,2 C 17,2 C 9,4 C 83 % 1003,7 hPa 0,0 l/m 2 min 0 min 510 W/m 6,4 km/h (2 Bft) 93,62 %
24.03.2023 15:46 13,3 C 17,8 C 10,0 C 82 % 1003,6 hPa 0,0 l/m 2 min 0 min 513 W/m 12,9 km/h (3 Bft) 95,74 %
24.03.2023 15:48 13,6 C 18,3 C 10,0 C 82 % 1003,6 hPa 0,0 l/m 2 min 0 min 519 W/m 6,4 km/h (2 Bft) 97,14 %
24.03.2023 15:50 13,8 C 18,9 C 10,6 C 82 % 1003,6 hPa 0,0 l/m 2 min 0 min 524 W/m 6,4 km/h (2 Bft) 95,74 %
24.03.2023 15:52 14,1 C 18,9 C 10,6 C 81 % 1003,5 hPa 0,0 l/m 2 min 0 min 507 W/m 6,4 km/h (2 Bft) 94,64 %
24.03.2023 15:54 14,3 C 18,3 C 10,6 C 80 % 1003,5 hPa 0,0 l/m 2 min 0 min 479 W/m 12,9 km/h (3 Bft) 95,92 %
24.03.2023 15:56 14,3 C 17,8 C 10,6 C 78 % 1003,5 hPa 0,0 l/m 2 min 0 min 475 W/m 22,5 km/h (4 Bft) 95,74 %
24.03.2023 15:58 14,5 C 17,8 C 10,6 C 77 % 1003,4 hPa 0,0 l/m 2 min 0 min 470 W/m 16,1 km/h (3 Bft) 93,62 %
24.03.2023 16:00 14,6 C 17,2 C 10,6 C 76 % 1003,4 hPa 0,0 l/m 2 min 0 min 463 W/m 12,9 km/h (3 Bft) 95,74 %
24.03.2023 16:02 14,6 C 16,7 C 10,6 C 75 % 1003,4 hPa 0,0 l/m 2 min 0 min 448 W/m 22,5 km/h (4 Bft) 91,49 %
24.03.2023 16:04 14,5 C 16,7 C 10,6 C 74 % 1003,5 hPa 0,0 l/m 2 min 0 min 358 W/m 19,3 km/h (3 Bft) 82,98 %
24.03.2023 16:06 14,5 C 15,6 C 10,0 C 74 % 1003,5 hPa 0,0 l/m 2 min 0 min 318 W/m 19,3 km/h (3 Bft) 12,50 %
24.03.2023 16:08 14,3 C 14,4 C 10,0 C 73 % 1003,4 hPa 0,0 l/m 2 min 0 min 242 W/m 29,0 km/h (5 Bft) 95,65 %
24.03.2023 16:10 14,3 C 13,9 C 10,0 C 74 % 1003,4 hPa 0,0 l/m 0 min 0 min 101 W/m 29,0 km/h (5 Bft) 95,74 %
24.03.2023 16:12 14,2 C 13,3 C 9,4 C 74 % 1003,4 hPa 0,0 l/m 0 min 0 min 84 W/m 22,5 km/h (4 Bft) 95,74 %
24.03.2023 16:14 14,1 C 13,3 C 9,4 C 74 % 1003,3 hPa 0,0 l/m 0 min 0 min 63 W/m 19,3 km/h (3 Bft) 95,74 %
24.03.2023 16:16 13,9 C 13,3 C 9,4 C 74 % 1003,3 hPa 0,0 l/m 0 min 0 min 40 W/m 19,3 km/h (3 Bft) 95,74 %
24.03.2023 16:18 13,9 C 13,3 C 9,4 C 74 % 1003,3 hPa 0,0 l/m 0 min 0 min 40 W/m 32,2 km/h (5 Bft) 100,00 %
24.03.2023 16:20 13,8 C 13,3 C 9,4 C 75 % 1003,3 hPa 0,0 l/m 0 min 2 min 48 W/m 22,5 km/h (4 Bft) 97,87 %
24.03.2023 16:22 13,7 C 12,8 C 8,9 C 75 % 1003,3 hPa 0,0 l/m 0 min 2 min 48 W/m 25,7 km/h (4 Bft) 100,00 %
24.03.2023 16:24 13,7 C 12,8 C 8,9 C 76 % 1003,3 hPa 0,0 l/m 0 min 2 min 31 W/m 29,0 km/h (5 Bft) 100,00 %
24.03.2023 16:26 13,6 C 12,2 C 8,3 C 76 % 1003,3 hPa 0,0 l/m 0 min 2 min 15 W/m 32,2 km/h (5 Bft) 100,00 %
24.03.2023 16:28 13,6 C 11,7 C 7,8 C 78 % 1003,4 hPa 0,2 l/m 0 min 2 min 8 W/m 25,7 km/h (4 Bft) 100,00 %
24.03.2023 16:30 13,5 C 11,1 C 7,2 C 79 % 1003,4 hPa 0,0 l/m 0 min 2 min 4 W/m 29,0 km/h (5 Bft) 100,00 %
24.03.2023 16:32 13,4 C 11,1 C 6,7 C 80 % 1003,7 hPa 0,2 l/m 0 min 2 min 0 W/m 38,6 km/h (5 Bft) 100,00 %
24.03.2023 16:34 13,1 C 10,0 C 6,1 C 82 % 1003,9 hPa 0,6 l/m 0 min 2 min 0 W/m 29,0 km/h (5 Bft) 100,00 %
24.03.2023 16:36 12,5 C 10,0 C 6,1 C 83 % 1004,1 hPa 0,2 l/m 0 min 2 min 1 W/m 32,2 km/h (5 Bft) 100,00 %
24.03.2023 16:38 12,0 C 9,4 C 5,6 C 85 % 1004,4 hPa 0,2 l/m 0 min 2 min 6 W/m 29,0 km/h (5 Bft) 97,87 %
24.03.2023 16:40 11,4 C 8,9 C 5,6 C 85 % 1004,4 hPa 0,4 l/m 0 min 2 min 7 W/m 35,4 km/h (5 Bft) 97,87 %
24.03.2023 16:42 11,0 C 8,9 C 5,6 C 86 % 1004,3 hPa 0,4 l/m 0 min 2 min 10 W/m 19,3 km/h (3 Bft) 97,87 %
24.03.2023 16:44 10,7 C 8,3 C 5,0 C 87 % 1003,8 hPa 0,2 l/m 0 min 2 min 20 W/m 25,7 km/h (4 Bft) 100,00 %
24.03.2023 16:46 10,5 C 8,3 C 5,0 C 87 % 1003,7 hPa 0,0 l/m 0 min 2 min 42 W/m 12,9 km/h (3 Bft) 100,00 %
24.03.2023 16:48 10,4 C 8,9 C 5,0 C 88 % 1003,6 hPa 0,0 l/m 0 min 0 min 73 W/m 16,1 km/h (3 Bft) 100,00 %
24.03.2023 16:50 10,4 C 8,9 C 5,6 C 88 % 1003,6 hPa 0,0 l/m 0 min 0 min 100 W/m 12,9 km/h (3 Bft) 97,83 %
24.03.2023 16:52 10,4 C 8,9 C 5,6 C 88 % 1003,6 hPa 0,2 l/m 0 min 0 min 104 W/m 12,9 km/h (3 Bft) 97,87 %
24.03.2023 16:54 10,4 C 8,9 C 5,6 C 89 % 1003,6 hPa 0,0 l/m 0 min 0 min 91 W/m 6,4 km/h (2 Bft) 100,00 %
24.03.2023 16:56 10,4 C 8,9 C 5,6 C 89 % 1003,6 hPa 0,0 l/m 0 min 0 min 77 W/m 9,7 km/h (2 Bft) 100,00 %
24.03.2023 16:58 10,4 C 8,9 C 5,6 C 89 % 1003,6 hPa 0,0 l/m 0 min 0 min 74 W/m 19,3 km/h (3 Bft) 100,00 %
24.03.2023 17:00 10,4 C 8,9 C 5,6 C 89 % 1003,6 hPa 0,0 l/m 0 min 0 min 72 W/m 9,7 km/h (2 Bft) 100,00 %
24.03.2023 17:02 10,4 C 8,9 C 5,6 C 89 % 1003,6 hPa 0,0 l/m 0 min 0 min 68 W/m 16,1 km/h (3 Bft) 100,00 %
24.03.2023 17:04 10,3 C 8,9 C 5,6 C 89 % 1003,6 hPa 0,0 l/m 0 min 0 min 64 W/m 12,9 km/h (3 Bft) 97,87 %
24.03.2023 17:06 10,3 C 8,9 C 5,6 C 89 % 1003,6 hPa 0,0 l/m 0 min 0 min 54 W/m 12,9 km/h (3 Bft) 97,92 %
24.03.2023 17:08 10,3 C 8,9 C 5,6 C 90 % 1003,5 hPa 0,0 l/m 0 min 0 min 49 W/m 12,9 km/h (3 Bft) 100,00 %
24.03.2023 17:10 10,3 C 8,9 C 5,6 C 90 % 1003,6 hPa 0,0 l/m 0 min 0 min 52 W/m 16,1 km/h (3 Bft) 100,00 %
24.03.2023 17:12 10,3 C 8,9 C 5,0 C 90 % 1003,5 hPa 0,0 l/m 0 min 2 min 94 W/m 16,1 km/h (3 Bft) 97,96 %
24.03.2023 17:14 10,3 C 9,4 C 5,6 C 90 % 1003,5 hPa 0,0 l/m 2 min 2 min 207 W/m 19,3 km/h (3 Bft) 100,00 %
24.03.2023 17:16 10,3 C 9,4 C 5,6 C 90 % 1003,5 hPa 0,0 l/m 2 min 0 min 130 W/m 19,3 km/h (3 Bft) 100,00 %
24.03.2023 17:18 10,3 C 9,4 C 5,6 C 90 % 1003,6 hPa 0,0 l/m 0 min 0 min 110 W/m 22,5 km/h (4 Bft) 100,00 %
24.03.2023 17:20 10,3 C 9,4 C 5,6 C 90 % 1003,5 hPa 0,0 l/m 2 min 2 min 149 W/m 22,5 km/h (4 Bft) 100,00 %
24.03.2023 17:22 10,4 C 9,4 C 5,6 C 90 % 1003,5 hPa 0,0 l/m 2 min 0 min 148 W/m 25,7 km/h (4 Bft) 100,00 %
24.03.2023 17:24 10,5 C 10,0 C 5,6 C 90 % 1003,6 hPa 0,0 l/m 2 min 0 min 197 W/m 19,3 km/h (3 Bft) 100,00 %
24.03.2023 17:26 10,6 C 10,0 C 5,6 C 90 % 1003,5 hPa 0,0 l/m 2 min 0 min 141 W/m 25,7 km/h (4 Bft) 97,87 %
24.03.2023 17:28 10,6 C 10,0 C 5,6 C 90 % 1003,5 hPa 0,0 l/m 2 min 0 min 157 W/m 29,0 km/h (5 Bft) 97,87 %
24.03.2023 17:30 10,7 C 10,6 C 5,6 C 89 % 1003,5 hPa 0,0 l/m 2 min 0 min 154 W/m 32,2 km/h (5 Bft) 95,74 %
24.03.2023 17:32 10,8 C 10,6 C 5,6 C 89 % 1003,5 hPa 0,0 l/m 2 min 0 min 190 W/m 22,5 km/h (4 Bft) 97,87 %
24.03.2023 17:34 10,8 C 10,6 C 5,6 C 89 % 1003,5 hPa 0,0 l/m 2 min 0 min 182 W/m 25,7 km/h (4 Bft) 95,74 %
24.03.2023 17:36 10,8 C 10,6 C 5,6 C 89 % 1003,5 hPa 0,0 l/m 2 min 0 min 169 W/m 25,7 km/h (4 Bft) 93,48 %
24.03.2023 17:38 10,9 C 11,1 C 5,6 C 88 % 1003,6 hPa 0,0 l/m 2 min 0 min 170 W/m 25,7 km/h (4 Bft) 93,62 %
24.03.2023 17:40 10,9 C 11,1 C 5,6 C 88 % 1003,5 hPa 0,0 l/m 2 min 0 min 186 W/m 32,2 km/h (5 Bft) 95,74 %
24.03.2023 17:42 11,0 C 11,1 C 5,6 C 87 % 1003,4 hPa 0,0 l/m 2 min 0 min 184 W/m 38,6 km/h (5 Bft) 95,74 %
24.03.2023 17:44 11,1 C 11,7 C 5,6 C 87 % 1003,4 hPa 0,0 l/m 2 min 0 min 178 W/m 35,4 km/h (5 Bft) 95,74 %
24.03.2023 17:46 11,2 C 11,7 C 5,6 C 86 % 1003,4 hPa 0,0 l/m 2 min 0 min 165 W/m 22,5 km/h (4 Bft) 95,83 %
24.03.2023 17:48 11,2 C 11,7 C 5,6 C 86 % 1003,4 hPa 0,0 l/m 2 min 0 min 147 W/m 25,7 km/h (4 Bft) 93,62 %
24.03.2023 17:50 11,3 C 11,7 C 5,6 C 86 % 1003,4 hPa 0,0 l/m 2 min 0 min 123 W/m 25,7 km/h (4 Bft) 95,74 %
24.03.2023 17:52 11,3 C 11,7 C 5,6 C 85 % 1003,5 hPa 0,0 l/m 2 min 0 min 106 W/m 25,7 km/h (4 Bft) 95,74 %
24.03.2023 17:54 11,4 C 11,7 C 5,6 C 85 % 1003,5 hPa 0,0 l/m 2 min 0 min 93 W/m 25,7 km/h (4 Bft) 95,74 %
24.03.2023 17:56 11,4 C 11,7 C 5,6 C 85 % 1003,5 hPa 0,0 l/m 2 min 0 min 85 W/m 19,3 km/h (3 Bft) 95,74 %
24.03.2023 17:58 11,4 C 11,7 C 5,6 C 85 % 1003,6 hPa 0,0 l/m 2 min 0 min 77 W/m 16,1 km/h (3 Bft) 91,30 %
24.03.2023 18:00 11,5 C 11,1 C 5,6 C 84 % 1003,6 hPa 0,0 l/m 2 min 0 min 70 W/m 25,7 km/h (4 Bft) 93,62 %
24.03.2023 18:02 11,5 C 11,1 C 5,6 C 84 % 1003,6 hPa 0,0 l/m 2 min 0 min 64 W/m 19,3 km/h (3 Bft) 93,62 %
24.03.2023 18:04 11,5 C 11,1 C 5,6 C 84 % 1003,6 hPa 0,0 l/m 0 min 0 min 50 W/m 25,7 km/h (4 Bft) 93,62 %
24.03.2023 18:07 11,5 C 10,6 C 5,6 C 83 % 1003,6 hPa 0,0 l/m 0 min 0 min 27 W/m 19,3 km/h (3 Bft) 93,06 %
24.03.2023 18:08 11,5 C 10,6 C 5,6 C 83 % 1003,6 hPa 0,0 l/m 0 min 0 min 25 W/m 12,9 km/h (3 Bft) 95,83 %
24.03.2023 18:12 11,4 C 10,6 C 5,0 C 83 % 1003,6 hPa 0,0 l/m 0 min 0 min 23 W/m 12,9 km/h (3 Bft) 96,23 %
24.03.2023 18:14 11,4 C 10,6 C 5,0 C 84 % 1003,6 hPa 0,0 l/m 0 min 0 min 21 W/m 12,9 km/h (3 Bft) 97,87 %
24.03.2023 18:16 11,4 C 10,6 C 5,0 C 84 % 1003,6 hPa 0,0 l/m 0 min 0 min 19 W/m 25,7 km/h (4 Bft) 95,74 %
24.03.2023 18:18 11,4 C 10,6 C 5,0 C 84 % 1003,6 hPa 0,0 l/m 0 min 0 min 17 W/m 19,3 km/h (3 Bft) 95,74 %
24.03.2023 18:20 11,3 C 10,6 C 5,0 C 84 % 1003,7 hPa 0,0 l/m 0 min 0 min 15 W/m 32,2 km/h (5 Bft) 85,11 %
24.03.2023 18:22 11,3 C 10,6 C 5,0 C 84 % 1003,6 hPa 0,0 l/m 0 min 0 min 14 W/m 29,0 km/h (5 Bft) 60,00 %
24.03.2023 18:24 11,3 C 10,6 C 5,0 C 84 % 1003,6 hPa 0,0 l/m 0 min 0 min 12 W/m 29,0 km/h (5 Bft) 97,83 %
24.03.2023 18:26 11,3 C 10,6 C 5,0 C 84 % 1003,6 hPa 0,0 l/m 0 min 0 min 12 W/m 22,5 km/h (4 Bft) 97,87 %
24.03.2023 18:28 11,2 C 10,6 C 5,0 C 84 % 1003,6 hPa 0,0 l/m 0 min 0 min 12 W/m 22,5 km/h (4 Bft) 95,74 %
24.03.2023 18:30 11,2 C 10,6 C 5,0 C 84 % 1003,6 hPa 0,0 l/m 0 min 0 min 11 W/m 25,7 km/h (4 Bft) 93,62 %
24.03.2023 18:32 11,2 C 10,0 C 5,0 C 84 % 1003,6 hPa 0,0 l/m 0 min 0 min 11 W/m 25,7 km/h (4 Bft) 97,87 %
24.03.2023 18:34 11,2 C 10,0 C 5,0 C 84 % 1003,6 hPa 0,0 l/m 0 min 0 min 9 W/m 22,5 km/h (4 Bft) 97,87 %
24.03.2023 18:36 11,1 C 10,0 C 5,0 C 84 % 1003,6 hPa 0,0 l/m 0 min 0 min 9 W/m 22,5 km/h (4 Bft) 97,87 %
24.03.2023 18:38 11,1 C 10,0 C 5,0 C 84 % 1003,6 hPa 0,0 l/m 0 min 0 min 7 W/m 22,5 km/h (4 Bft) 95,65 %
24.03.2023 18:40 11,1 C 10,0 C 5,0 C 84 % 1003,6 hPa 0,0 l/m 0 min 0 min 7 W/m 19,3 km/h (3 Bft) 97,87 %
24.03.2023 18:42 11,1 C 10,0 C 5,0 C 85 % 1003,6 hPa 0,0 l/m 0 min 0 min 7 W/m 16,1 km/h (3 Bft) 97,87 %
24.03.2023 18:44 11,0 C 10,0 C 5,0 C 85 % 1003,5 hPa 0,0 l/m 0 min 0 min 5 W/m 12,9 km/h (3 Bft) 97,87 %
24.03.2023 18:46 11,0 C 10,0 C 5,0 C 85 % 1003,6 hPa 0,0 l/m 0 min 0 min 5 W/m 22,5 km/h (4 Bft) 95,74 %
24.03.2023 18:48 10,9 C 10,0 C 5,0 C 85 % 1003,7 hPa 0,0 l/m 0 min 0 min 5 W/m 19,3 km/h (3 Bft) 97,87 %
24.03.2023 18:50 10,9 C 10,0 C 5,0 C 85 % 1003,7 hPa 0,0 l/m 0 min 0 min 4 W/m 22,5 km/h (4 Bft) 100,00 %
24.03.2023 18:52 10,9 C 10,0 C 5,0 C 85 % 1003,7 hPa 0,0 l/m 0 min 0 min 0 W/m 16,1 km/h (3 Bft) 100,00 %
24.03.2023 18:54 10,8 C 10,0 C 5,0 C 85 % 1003,7 hPa 0,0 l/m 0 min 0 min 0 W/m 16,1 km/h (3 Bft) 100,00 %
24.03.2023 18:56 10,8 C 9,4 C 5,0 C 85 % 1003,8 hPa 0,0 l/m 0 min 0 min 0 W/m 12,9 km/h (3 Bft) 97,87 %
24.03.2023 18:58 10,8 C 9,4 C 5,0 C 86 % 1003,8 hPa 0,0 l/m 0 min 0 min 0 W/m 12,9 km/h (3 Bft) 100,00 %
24.03.2023 19:00 10,7 C 9,4 C 5,0 C 86 % 1003,7 hPa 0,0 l/m 0 min 0 min 0 W/m 9,7 km/h (2 Bft) 100,00 %
24.03.2023 19:02 10,7 C 9,4 C 5,0 C 86 % 1003,8 hPa 0,0 l/m 0 min 0 min 0 W/m 16,1 km/h (3 Bft) 100,00 %
24.03.2023 19:04 10,7 C 9,4 C 5,0 C 86 % 1003,8 hPa 0,0 l/m 0 min 0 min 0 W/m 16,1 km/h (3 Bft) 100,00 %
24.03.2023 19:06 10,6 C 9,4 C 5,0 C 86 % 1003,7 hPa 0,0 l/m 0 min 0 min 0 W/m 9,7 km/h (2 Bft) 100,00 %
24.03.2023 19:08 10,6 C 9,4 C 5,0 C 86 % 1003,7 hPa 0,0 l/m 0 min 0 min 0 W/m 12,9 km/h (3 Bft) 100,00 %
24.03.2023 19:10 10,6 C 9,4 C 5,0 C 87 % 1003,8 hPa 0,0 l/m 0 min 0 min 0 W/m 9,7 km/h (2 Bft) 100,00 %
24.03.2023 19:12 10,5 C 9,4 C 5,0 C 87 % 1003,8 hPa 0,0 l/m 0 min 0 min 0 W/m 22,5 km/h (4 Bft) 100,00 %
24.03.2023 19:14 10,5 C 9,4 C 5,0 C 87 % 1003,8 hPa 0,0 l/m 0 min 0 min 0 W/m 16,1 km/h (3 Bft) 100,00 %
24.03.2023 19:16 10,4 C 9,4 C 5,0 C 87 % 1003,8 hPa 0,0 l/m 0 min 0 min 0 W/m 16,1 km/h (3 Bft) 100,00 %
24.03.2023 19:18 10,4 C 9,4 C 5,0 C 87 % 1003,8 hPa 0,0 l/m 0 min 0 min 0 W/m 12,9 km/h (3 Bft) 100,00 %
24.03.2023 19:20 10,4 C 9,4 C 5,0 C 87 % 1003,7 hPa 0,0 l/m 0 min 0 min 0 W/m 16,1 km/h (3 Bft) 100,00 %
24.03.2023 19:22 10,4 C 9,4 C 5,0 C 87 % 1003,8 hPa 0,0 l/m 0 min 0 min 0 W/m 12,9 km/h (3 Bft) 100,00 %
24.03.2023 19:24 10,4 C 9,4 C 5,0 C 87 % 1003,8 hPa 0,0 l/m 0 min 0 min 0 W/m 19,3 km/h (3 Bft) 100,00 %
24.03.2023 19:26 10,4 C 9,4 C 5,0 C 87 % 1003,8 hPa 0,0 l/m 0 min 0 min 0 W/m 16,1 km/h (3 Bft) 100,00 %
24.03.2023 19:28 10,3 C 9,4 C 5,0 C 87 % 1003,7 hPa 0,0 l/m 0 min 0 min 0 W/m 22,5 km/h (4 Bft) 97,87 %
24.03.2023 19:30 10,4 C 9,4 C 5,0 C 87 % 1003,8 hPa 0,0 l/m 0 min 0 min 0 W/m 16,1 km/h (3 Bft) 100,00 %
24.03.2023 19:32 10,4 C 9,4 C 5,0 C 88 % 1003,8 hPa 0,0 l/m 0 min 0 min 0 W/m 19,3 km/h (3 Bft) 97,87 %
24.03.2023 19:34 10,4 C 9,4 C 5,0 C 87 % 1003,8 hPa 0,0 l/m 0 min 0 min 0 W/m 9,7 km/h (2 Bft) 95,74 %
24.03.2023 19:36 10,4 C 9,4 C 5,0 C 87 % 1003,8 hPa 0,0 l/m 0 min 0 min 0 W/m 16,1 km/h (3 Bft) 97,87 %
24.03.2023 19:38 10,4 C 9,4 C 5,0 C 88 % 1003,8 hPa 0,0 l/m 0 min 0 min 0 W/m 12,9 km/h (3 Bft) 95,74 %
24.03.2023 19:40 10,4 C 9,4 C 5,0 C 88 % 1003,8 hPa 0,0 l/m 0 min 0 min 0 W/m 12,9 km/h (3 Bft) 97,92 %
24.03.2023 19:42 10,4 C 9,4 C 5,0 C 88 % 1003,8 hPa 0,0 l/m 0 min 0 min 0 W/m 9,7 km/h (2 Bft) 97,87 %
24.03.2023 19:44 10,4 C 9,4 C 5,0 C 87 % 1003,8 hPa 0,0 l/m 0 min 0 min 0 W/m 9,7 km/h (2 Bft) 97,83 %
24.03.2023 19:46 10,4 C 9,4 C 5,0 C 87 % 1003,8 hPa 0,0 l/m 0 min 0 min 0 W/m 6,4 km/h (2 Bft) 97,87 %
24.03.2023 19:48 10,4 C 9,4 C 5,0 C 88 % 1003,9 hPa 0,0 l/m 0 min 0 min 0 W/m 9,7 km/h (2 Bft) 97,87 %
24.03.2023 19:50 10,4 C 9,4 C 5,0 C 88 % 1003,8 hPa 0,0 l/m 0 min 0 min 0 W/m 9,7 km/h (2 Bft) 97,87 %
24.03.2023 19:52 10,4 C 9,4 C 5,0 C 88 % 1003,8 hPa 0,0 l/m 0 min 0 min 0 W/m 6,4 km/h (2 Bft) 97,87 %
24.03.2023 19:54 10,4 C 9,4 C 5,0 C 88 % 1003,8 hPa 0,0 l/m 0 min 0 min 0 W/m 12,9 km/h (3 Bft) 97,87 %
24.03.2023 19:56 10,4 C 9,4 C 5,6 C 88 % 1003,8 hPa 0,0 l/m 0 min 0 min 0 W/m 6,4 km/h (2 Bft) 95,74 %
24.03.2023 19:58 10,4 C 9,4 C 5,6 C 88 % 1003,8 hPa 0,0 l/m 0 min 0 min 0 W/m 9,7 km/h (2 Bft) 97,83 %
24.03.2023 20:00 10,4 C 9,4 C 5,6 C 88 % 1003,8 hPa 0,0 l/m 0 min 0 min 0 W/m 12,9 km/h (3 Bft) 97,62 %
24.03.2023 20:02 10,4 C 9,4 C 5,6 C 88 % 1003,8 hPa 0,0 l/m 0 min 0 min 0 W/m 6,4 km/h (2 Bft) 95,74 %
24.03.2023 20:04 10,4 C 9,4 C 5,6 C 88 % 1003,8 hPa 0,0 l/m 0 min 0 min 0 W/m 6,4 km/h (2 Bft) 97,87 %
24.03.2023 20:06 10,4 C 9,4 C 5,6 C 88 % 1003,8 hPa 0,0 l/m 0 min 0 min 0 W/m 12,9 km/h (3 Bft) 100,00 %
24.03.2023 20:08 10,4 C 9,4 C 5,6 C 88 % 1003,8 hPa 0,0 l/m 0 min 2 min 0 W/m 9,7 km/h (2 Bft) 100,00 %
24.03.2023 20:10 10,4 C 9,4 C 5,6 C 88 % 1003,8 hPa 0,0 l/m 0 min 2 min 0 W/m 6,4 km/h (2 Bft) 100,00 %
24.03.2023 20:12 10,4 C 9,4 C 5,0 C 88 % 1003,8 hPa 0,0 l/m 0 min 2 min 0 W/m 12,9 km/h (3 Bft) 100,00 %
24.03.2023 20:14 10,4 C 9,4 C 5,0 C 88 % 1003,7 hPa 0,2 l/m 0 min 2 min 0 W/m 9,7 km/h (2 Bft) 97,96 %
24.03.2023 20:16 10,4 C 9,4 C 5,0 C 88 % 1003,7 hPa 0,0 l/m 0 min 2 min 0 W/m 12,9 km/h (3 Bft) 100,00 %
24.03.2023 20:18 10,4 C 9,4 C 5,0 C 88 % 1003,6 hPa 0,0 l/m 0 min 0 min 0 W/m 16,1 km/h (3 Bft) 100,00 %
24.03.2023 20:20 10,4 C 9,4 C 5,0 C 88 % 1003,7 hPa 0,0 l/m 0 min 0 min 0 W/m 19,3 km/h (3 Bft) 100,00 %
24.03.2023 20:22 10,4 C 9,4 C 5,0 C 89 % 1003,7 hPa 0,0 l/m 0 min 0 min 0 W/m 9,7 km/h (2 Bft) 97,83 %
24.03.2023 20:24 10,3 C 9,4 C 5,0 C 89 % 1003,7 hPa 0,0 l/m 0 min 0 min 0 W/m 12,9 km/h (3 Bft) 97,87 %
24.03.2023 20:26 10,3 C 9,4 C 5,0 C 89 % 1003,7 hPa 0,0 l/m 0 min 0 min 0 W/m 9,7 km/h (2 Bft) 100,00 %
24.03.2023 20:28 10,3 C 9,4 C 5,0 C 89 % 1003,7 hPa 0,0 l/m 0 min 0 min 0 W/m 9,7 km/h (2 Bft) 97,87 %
24.03.2023 20:30 10,3 C 9,4 C 5,0 C 89 % 1003,7 hPa 0,0 l/m 0 min 0 min 0 W/m 9,7 km/h (2 Bft) 100,00 %
24.03.2023 20:32 10,3 C 9,4 C 5,0 C 89 % 1003,7 hPa 0,0 l/m 0 min 0 min 0 W/m 25,7 km/h (4 Bft) 100,00 %
24.03.2023 20:34 10,3 C 9,4 C 5,0 C 89 % 1003,7 hPa 0,0 l/m 0 min 0 min 0 W/m 9,7 km/h (2 Bft) 95,74 %
24.03.2023 20:36 10,3 C 9,4 C 5,0 C 89 % 1003,7 hPa 0,0 l/m 0 min 0 min 0 W/m 19,3 km/h (3 Bft) 97,87 %
24.03.2023 20:38 10,3 C 9,4 C 5,0 C 89 % 1003,8 hPa 0,0 l/m 0 min 0 min 0 W/m 22,5 km/h (4 Bft) 95,74 %
24.03.2023 20:40 10,3 C 10,0 C 5,0 C 89 % 1003,8 hPa 0,0 l/m 0 min 0 min 0 W/m 29,0 km/h (5 Bft) 95,74 %
24.03.2023 20:42 10,3 C 10,0 C 5,0 C 88 % 1003,8 hPa 0,0 l/m 0 min 0 min 0 W/m 25,7 km/h (4 Bft) 93,62 %
24.03.2023 20:44 10,4 C 10,0 C 5,0 C 88 % 1003,8 hPa 0,0 l/m 0 min 0 min 0 W/m 45,1 km/h (6 Bft) 95,65 %
24.03.2023 20:46 10,4 C 10,0 C 4,4 C 87 % 1003,8 hPa 0,0 l/m 0 min 0 min 0 W/m 32,2 km/h (5 Bft) 95,74 %
24.03.2023 20:48 10,4 C 10,0 C 4,4 C 86 % 1003,8 hPa 0,0 l/m 0 min 0 min 0 W/m 48,3 km/h (6 Bft) 93,62 %
24.03.2023 20:50 10,4 C 9,4 C 4,4 C 85 % 1003,8 hPa 0,0 l/m 0 min 0 min 0 W/m 29,0 km/h (5 Bft) 95,74 %
24.03.2023 20:52 10,3 C 9,4 C 4,4 C 85 % 1003,8 hPa 0,0 l/m 0 min 0 min 0 W/m 29,0 km/h (5 Bft) 93,62 %
24.03.2023 20:54 10,3 C 9,4 C 4,4 C 85 % 1003,8 hPa 0,0 l/m 0 min 0 min 0 W/m 22,5 km/h (4 Bft) 95,74 %
24.03.2023 20:56 10,3 C 9,4 C 4,4 C 85 % 1003,8 hPa 0,0 l/m 0 min 0 min 0 W/m 29,0 km/h (5 Bft) 95,74 %
24.03.2023 20:58 10,3 C 9,4 C 4,4 C 85 % 1003,8 hPa 0,0 l/m 0 min 0 min 0 W/m 16,1 km/h (3 Bft) 95,65 %
24.03.2023 21:00 10,2 C 9,4 C 4,4 C 85 % 1003,7 hPa 0,0 l/m 0 min 0 min 0 W/m 29,0 km/h (5 Bft) 93,62 %
24.03.2023 21:02 10,2 C 9,4 C 4,4 C 85 % 1003,8 hPa 0,0 l/m 0 min 0 min 0 W/m 16,1 km/h (3 Bft) 95,74 %
24.03.2023 21:04 10,2 C 9,4 C 4,4 C 85 % 1003,8 hPa 0,0 l/m 0 min 0 min 0 W/m 19,3 km/h (3 Bft) 95,83 %
24.03.2023 21:06 10,1 C 9,4 C 4,4 C 85 % 1003,8 hPa 0,0 l/m 0 min 0 min 0 W/m 19,3 km/h (3 Bft) 93,22 %
24.03.2023 21:08 10,1 C 9,4 C 4,4 C 85 % 1003,8 hPa 0,0 l/m 0 min 0 min 0 W/m 29,0 km/h (5 Bft) 94,29 %
24.03.2023 21:10 10,1 C 9,4 C 4,4 C 85 % 1003,8 hPa 0,0 l/m 0 min 0 min 0 W/m 22,5 km/h (4 Bft) 93,48 %
24.03.2023 21:12 10,1 C 9,4 C 4,4 C 85 % 1003,8 hPa 0,0 l/m 0 min 0 min 0 W/m 22,5 km/h (4 Bft) 97,87 %
24.03.2023 21:14 10,1 C 9,4 C 4,4 C 85 % 1003,8 hPa 0,0 l/m 0 min 0 min 0 W/m 19,3 km/h (3 Bft) 91,49 %
24.03.2023 21:16 10,0 C 8,9 C 4,4 C 85 % 1003,7 hPa 0,0 l/m 0 min 0 min 0 W/m 16,1 km/h (3 Bft) 95,74 %
24.03.2023 21:18 10,0 C 8,9 C 4,4 C 85 % 1003,7 hPa 0,0 l/m 0 min 0 min 0 W/m 16,1 km/h (3 Bft) 95,74 %
24.03.2023 21:20 10,0 C 8,9 C 4,4 C 85 % 1003,7 hPa 0,0 l/m 0 min 0 min 0 W/m 12,9 km/h (3 Bft) 95,74 %
24.03.2023 21:22 10,0 C 8,9 C 4,4 C 85 % 1003,7 hPa 0,0 l/m 0 min 0 min 0 W/m 12,9 km/h (3 Bft) 95,74 %
24.03.2023 21:24 9,9 C 8,9 C 4,4 C 86 % 1003,7 hPa 0,0 l/m 0 min 0 min 0 W/m 19,3 km/h (3 Bft) 95,74 %
24.03.2023 21:26 9,9 C 8,9 C 4,4 C 86 % 1003,7 hPa 0,0 l/m 0 min 0 min 0 W/m 12,9 km/h (3 Bft) 95,65 %
24.03.2023 21:28 9,9 C 8,9 C 5,0 C 86 % 1003,6 hPa 0,0 l/m 0 min 0 min 0 W/m 12,9 km/h (3 Bft) 95,74 %
24.03.2023 21:30 9,9 C 8,9 C 5,0 C 86 % 1003,6 hPa 0,0 l/m 0 min 0 min 0 W/m 16,1 km/h (3 Bft) 95,74 %
24.03.2023 21:32 9,9 C 8,9 C 5,0 C 86 % 1003,7 hPa 0,0 l/m 0 min 0 min 0 W/m 12,9 km/h (3 Bft) 95,74 %
24.03.2023 21:34 9,9 C 8,9 C 5,6 C 86 % 1003,7 hPa 0,0 l/m 0 min 0 min 0 W/m 6,4 km/h (2 Bft) 95,74 %
24.03.2023 21:36 9,9 C 8,9 C 5,6 C 86 % 1003,6 hPa 0,0 l/m 0 min 0 min 0 W/m 16,1 km/h (3 Bft) 97,87 %
24.03.2023 21:38 9,9 C 8,9 C 5,6 C 86 % 1003,6 hPa 0,0 l/m 0 min 0 min 0 W/m 6,4 km/h (2 Bft) 97,83 %
24.03.2023 21:40 9,9 C 8,9 C 5,6 C 87 % 1003,6 hPa 0,0 l/m 0 min 0 min 0 W/m 12,9 km/h (3 Bft) 97,87 %
24.03.2023 21:42 9,8 C 8,9 C 5,6 C 87 % 1003,6 hPa 0,0 l/m 0 min 0 min 0 W/m 19,3 km/h (3 Bft) 95,74 %
24.03.2023 21:44 9,8 C 8,9 C 5,6 C 87 % 1003,6 hPa 0,0 l/m 0 min 0 min 0 W/m 16,1 km/h (3 Bft) 97,87 %
24.03.2023 21:46 9,8 C 8,9 C 5,6 C 87 % 1003,6 hPa 0,0 l/m 0 min 0 min 0 W/m 16,1 km/h (3 Bft) 97,87 %
24.03.2023 21:48 9,8 C 8,9 C 5,6 C 87 % 1003,6 hPa 0,0 l/m 0 min 0 min 0 W/m 12,9 km/h (3 Bft) 97,87 %
24.03.2023 21:50 9,8 C 8,9 C 5,6 C 87 % 1003,6 hPa 0,0 l/m 0 min 0 min 0 W/m 12,9 km/h (3 Bft) 100,00 %
24.03.2023 21:52 9,8 C 8,9 C 5,6 C 88 % 1003,6 hPa 0,0 l/m 0 min 0 min 0 W/m 16,1 km/h (3 Bft) 100,00 %
24.03.2023 21:54 9,8 C 8,9 C 5,6 C 88 % 1003,6 hPa 0,0 l/m 0 min 0 min 0 W/m 19,3 km/h (3 Bft) 97,92 %
24.03.2023 21:56 9,8 C 8,9 C 5,6 C 88 % 1003,6 hPa 0,0 l/m 0 min 0 min 0 W/m 12,9 km/h (3 Bft) 97,87 %
24.03.2023 21:58 9,8 C 8,9 C 5,6 C 88 % 1003,6 hPa 0,0 l/m 0 min 0 min 0 W/m 22,5 km/h (4 Bft) 100,00 %
24.03.2023 22:00 9,8 C 8,9 C 5,6 C 88 % 1003,6 hPa 0,0 l/m 0 min 0 min 0 W/m 16,1 km/h (3 Bft) 100,00 %
24.03.2023 22:02 9,8 C 8,9 C 5,6 C 88 % 1003,6 hPa 0,0 l/m 0 min 0 min 0 W/m 12,9 km/h (3 Bft) 100,00 %
24.03.2023 22:04 9,8 C 8,9 C 5,6 C 88 % 1003,7 hPa 0,0 l/m 0 min 0 min 0 W/m 16,1 km/h (3 Bft) 100,00 %
24.03.2023 22:06 9,8 C 8,9 C 5,6 C 88 % 1003,8 hPa 0,0 l/m 0 min 0 min 0 W/m 16,1 km/h (3 Bft) 100,00 %
24.03.2023 22:08 9,7 C 8,9 C 5,6 C 88 % 1003,8 hPa 0,0 l/m 0 min 0 min 0 W/m 25,7 km/h (4 Bft) 100,00 %
24.03.2023 22:10 9,7 C 8,9 C 5,6 C 88 % 1003,8 hPa 0,0 l/m 0 min 0 min 0 W/m 25,7 km/h (4 Bft) 100,00 %
24.03.2023 22:12 9,7 C 8,9 C 5,6 C 88 % 1003,8 hPa 0,0 l/m 0 min 0 min 0 W/m 29,0 km/h (5 Bft) 100,00 %
24.03.2023 22:14 9,7 C 8,9 C 5,6 C 88 % 1003,7 hPa 0,0 l/m 0 min 0 min 0 W/m 12,9 km/h (3 Bft) 100,00 %
24.03.2023 22:16 9,7 C 8,9 C 5,6 C 88 % 1003,7 hPa 0,0 l/m 0 min 0 min 0 W/m 12,9 km/h (3 Bft) 97,87 %
24.03.2023 22:18 9,7 C 8,9 C 5,6 C 88 % 1003,8 hPa 0,0 l/m 0 min 0 min 0 W/m 19,3 km/h (3 Bft) 100,00 %
24.03.2023 22:20 9,7 C 8,9 C 5,6 C 88 % 1003,8 hPa 0,0 l/m 0 min 0 min 0 W/m 19,3 km/h (3 Bft) 100,00 %
24.03.2023 22:22 9,6 C 8,9 C 5,6 C 88 % 1003,7 hPa 0,0 l/m 0 min 0 min 0 W/m 19,3 km/h (3 Bft) 100,00 %
24.03.2023 22:24 9,6 C 8,9 C 5,6 C 88 % 1003,8 hPa 0,0 l/m 0 min 0 min 0 W/m 19,3 km/h (3 Bft) 100,00 %
24.03.2023 22:26 9,6 C 8,9 C 5,6 C 88 % 1003,8 hPa 0,0 l/m 0 min 0 min 0 W/m 19,3 km/h (3 Bft) 97,87 %
24.03.2023 22:28 9,6 C 8,9 C 5,6 C 88 % 1003,8 hPa 0,0 l/m 0 min 0 min 0 W/m 19,3 km/h (3 Bft) 100,00 %
24.03.2023 22:30 9,6 C 8,9 C 5,6 C 88 % 1003,7 hPa 0,0 l/m 0 min 0 min 0 W/m 16,1 km/h (3 Bft) 97,87 %
24.03.2023 22:32 9,6 C 8,9 C 5,6 C 88 % 1003,7 hPa 0,0 l/m 0 min 0 min 0 W/m 16,1 km/h (3 Bft) 95,74 %
24.03.2023 22:34 9,6 C 8,9 C 5,6 C 88 % 1003,7 hPa 0,0 l/m 0 min 0 min 0 W/m 16,1 km/h (3 Bft) 100,00 %
24.03.2023 22:36 9,6 C 8,9 C 5,6 C 88 % 1003,7 hPa 0,0 l/m 0 min 0 min 0 W/m 19,3 km/h (3 Bft) 100,00 %
24.03.2023 22:38 9,6 C 8,9 C 5,6 C 88 % 1003,7 hPa 0,0 l/m 0 min 0 min 0 W/m 12,9 km/h (3 Bft) 97,87 %
24.03.2023 22:40 9,6 C 8,9 C 5,6 C 88 % 1003,7 hPa 0,0 l/m 0 min 0 min 0 W/m 16,1 km/h (3 Bft) 97,87 %
24.03.2023 22:42 9,6 C 8,9 C 5,6 C 88 % 1003,7 hPa 0,0 l/m 0 min 0 min 0 W/m 12,9 km/h (3 Bft) 97,87 %
24.03.2023 22:44 9,6 C 8,9 C 5,6 C 87 % 1003,7 hPa 0,0 l/m 0 min 0 min 0 W/m 22,5 km/h (4 Bft) 100,00 %
24.03.2023 22:46 9,6 C 8,9 C 5,6 C 87 % 1003,7 hPa 0,0 l/m 0 min 0 min 0 W/m 25,7 km/h (4 Bft) 100,00 %
24.03.2023 22:48 9,6 C 8,9 C 5,6 C 87 % 1003,7 hPa 0,0 l/m 0 min 0 min 0 W/m 32,2 km/h (5 Bft) 94,44 %
24.03.2023 22:50 9,7 C 8,9 C 5,6 C 87 % 1003,7 hPa 0,0 l/m 0 min 0 min 0 W/m 19,3 km/h (3 Bft) 97,87 %
24.03.2023 22:52 9,7 C 8,9 C 5,6 C 87 % 1003,7 hPa 0,0 l/m 0 min 0 min 0 W/m 22,5 km/h (4 Bft) 95,65 %
24.03.2023 22:54 9,7 C 9,4 C 5,6 C 86 % 1003,7 hPa 0,0 l/m 0 min 0 min 0 W/m 29,0 km/h (5 Bft) 97,44 %
24.03.2023 22:56 9,7 C 9,4 C 5,6 C 86 % 1003,7 hPa 0,0 l/m 0 min 0 min 0 W/m 29,0 km/h (5 Bft) 95,92 %
24.03.2023 22:58 9,7 C 9,4 C 5,6 C 86 % 1003,8 hPa 0,0 l/m 0 min 0 min 0 W/m 22,5 km/h (4 Bft) 94,00 %
24.03.2023 23:00 9,8 C 9,4 C 5,6 C 85 % 1003,7 hPa 0,0 l/m 0 min 0 min 0 W/m 22,5 km/h (4 Bft) 100,00 %
24.03.2023 23:02 9,8 C 9,4 C 5,6 C 85 % 1003,8 hPa 0,0 l/m 0 min 0 min 0 W/m 19,3 km/h (3 Bft) 95,74 %
24.03.2023 23:04 9,8 C 9,4 C 5,6 C 85 % 1003,8 hPa 0,0 l/m 0 min 0 min 0 W/m 22,5 km/h (4 Bft) 94,00 %
24.03.2023 23:06 9,8 C 9,4 C 5,6 C 85 % 1003,8 hPa 0,0 l/m 0 min 0 min 0 W/m 29,0 km/h (5 Bft) 95,83 %
24.03.2023 23:08 9,8 C 9,4 C 5,6 C 85 % 1003,8 hPa 0,0 l/m 0 min 0 min 0 W/m 22,5 km/h (4 Bft) 97,92 %
24.03.2023 23:10 9,8 C 9,4 C 5,6 C 85 % 1003,8 hPa 0,0 l/m 0 min 0 min 0 W/m 22,5 km/h (4 Bft) 93,62 %
24.03.2023 23:12 9,8 C 9,4 C 5,6 C 84 % 1003,8 hPa 0,0 l/m 0 min 0 min 0 W/m 25,7 km/h (4 Bft) 95,74 %
24.03.2023 23:14 9,9 C 9,4 C 5,6 C 84 % 1003,8 hPa 0,0 l/m 0 min 0 min 0 W/m 22,5 km/h (4 Bft) 95,74 %
24.03.2023 23:16 9,9 C 9,4 C 5,6 C 84 % 1003,9 hPa 0,0 l/m 0 min 0 min 0 W/m 35,4 km/h (5 Bft) 95,65 %
24.03.2023 23:18 9,9 C 9,4 C 5,6 C 84 % 1003,9 hPa 0,0 l/m 0 min 0 min 0 W/m 29,0 km/h (5 Bft) 95,74 %
24.03.2023 23:20 9,9 C 9,4 C 5,6 C 84 % 1003,9 hPa 0,0 l/m 0 min 0 min 0 W/m 19,3 km/h (3 Bft) 95,74 %
24.03.2023 23:22 9,9 C 8,9 C 5,6 C 84 % 1003,9 hPa 0,0 l/m 0 min 2 min 0 W/m 22,5 km/h (4 Bft) 95,74 %
24.03.2023 23:24 9,9 C 8,9 C 5,6 C 85 % 1003,9 hPa 0,0 l/m 0 min 2 min 0 W/m 29,0 km/h (5 Bft) 95,74 %
24.03.2023 23:26 9,9 C 8,9 C 5,0 C 85 % 1003,9 hPa 0,0 l/m 0 min 2 min 0 W/m 29,0 km/h (5 Bft) 93,62 %
24.03.2023 23:28 9,8 C 8,9 C 5,0 C 85 % 1003,9 hPa 0,0 l/m 0 min 2 min 0 W/m 35,4 km/h (5 Bft) 95,74 %
24.03.2023 23:30 9,8 C 8,9 C 5,0 C 85 % 1003,9 hPa 0,0 l/m 0 min 0 min 0 W/m 25,7 km/h (4 Bft) 97,83 %
24.03.2023 23:32 9,8 C 8,9 C 5,6 C 85 % 1003,9 hPa 0,0 l/m 0 min 0 min 0 W/m 19,3 km/h (3 Bft) 95,74 %
24.03.2023 23:34 9,8 C 8,9 C 5,6 C 85 % 1004,0 hPa 0,0 l/m 0 min 2 min 0 W/m 45,1 km/h (6 Bft) 95,74 %
24.03.2023 23:36 9,8 C 8,9 C 5,6 C 85 % 1003,9 hPa 0,0 l/m 0 min 0 min 0 W/m 19,3 km/h (3 Bft) 95,74 %
24.03.2023 23:38 9,8 C 8,9 C 5,6 C 86 % 1004,0 hPa 0,0 l/m 0 min 0 min 0 W/m 19,3 km/h (3 Bft) 95,12 %
24.03.2023 23:40 9,7 C 8,9 C 5,6 C 86 % 1003,8 hPa 0,0 l/m 0 min 0 min 0 W/m 16,1 km/h (3 Bft) 97,87 %
24.03.2023 23:42 9,7 C 8,9 C 5,6 C 86 % 1003,9 hPa 0,0 l/m 0 min 0 min 0 W/m 16,1 km/h (3 Bft) 97,92 %
24.03.2023 23:44 9,7 C 8,9 C 5,6 C 86 % 1003,8 hPa 0,0 l/m 0 min 0 min 0 W/m 22,5 km/h (4 Bft) 97,87 %
24.03.2023 23:46 9,7 C 8,9 C 5,6 C 86 % 1003,8 hPa 0,0 l/m 0 min 0 min 0 W/m 29,0 km/h (5 Bft) 100,00 %
24.03.2023 23:48 9,7 C 8,9 C 5,6 C 86 % 1003,8 hPa 0,0 l/m 0 min 0 min 0 W/m 32,2 km/h (5 Bft) 98,00 %
24.03.2023 23:50 9,7 C 8,9 C 5,6 C 86 % 1003,7 hPa 0,0 l/m 0 min 0 min 0 W/m 25,7 km/h (4 Bft) 95,65 %
24.03.2023 23:52 9,7 C 8,9 C 5,6 C 86 % 1003,7 hPa 0,0 l/m 0 min 0 min 0 W/m 25,7 km/h (4 Bft) 97,96 %
24.03.2023 23:54 9,7 C 8,9 C 5,6 C 86 % 1003,7 hPa 0,0 l/m 0 min 0 min 0 W/m 29,0 km/h (5 Bft) 93,62 %
24.03.2023 23:56 9,6 C 8,9 C 5,6 C 86 % 1003,8 hPa 0,0 l/m 0 min 0 min 0 W/m 25,7 km/h (4 Bft) 97,87 %
24.03.2023 23:58 9,6 C 8,9 C 5,6 C 86 % 1003,8 hPa 0,0 l/m 0 min 0 min 0 W/m 22,5 km/h (4 Bft) 97,83 %
_ Min-Zeit 22:22 16:44 07:04 15:04 04:06 - - - - 07:50 16:06
Minimum _ 9,6 C 8,3 C 4,4 C 63 % 998,7 hPa - - - - 6,4 km/h (2 Bft) 12,50 %
_ Max-Zeit 15:06 13:00 11:20 00:54 16:38 16:34 12:12 00:08 13:00 04:44 00:00
Maximum _ 15,7 C 21,1 C 13,9 C 94 % 1004,4 hPa 0,6 l/m 4 min 4 min 891 W/m 54,7 km/h
SO (7 Bft)
100,00 %
Durchschnitt _ 12,0 C 11,9 C 7,4 C 84 % 1002,6 hPa #5,4 l/m #4:30 h #3:58 h 221 W/m 21,0 km/h (4 Bft) 96,95 %
© 2023 W. Hausmann